Wetterdaten: Sonntag, 22.11.2009
Datum Zeit Temp. Innen Temp. Aussen UV X Diff Temp. Feuchte Inne Feuchte Auss Sonnenschein Luftdruck Regen ab 0,1 Wind Sonnenschein Windben
22.11.2009 00:04 17,2 C 12,5 C 0,0 UV-I 0,0 C 63 % 85 % 0 % 1014,1 hPa 0,0 l/m 3,8 km/h (1 Bft) 0 min 3,1 km/h (1 Bft)
22.11.2009 00:09 17,2 C 12,5 C 0,0 UV-I 0,0 C 63 % 85 % 0 % 1014,1 hPa 0,0 l/m 2,6 km/h (1 Bft) 0 min 0,0 km/h (0 Bft)
22.11.2009 00:14 17,2 C 12,4 C 0,0 UV-I 0,0 C 63 % 86 % 0 % 1013,5 hPa 0,1 l/m 1,9 km/h (1 Bft) 0 min 2,9 km/h (1 Bft)
22.11.2009 00:19 17,2 C 12,4 C 0,0 UV-I 0,0 C 63 % 86 % 0 % 1013,5 hPa 0,0 l/m 1,7 km/h (1 Bft) 0 min 0,0 km/h (0 Bft)
22.11.2009 00:24 17,4 C 12,5 C 0,0 UV-I 0,0 C 63 % 85 % 0 % 1013,5 hPa 0,0 l/m 1,4 km/h (1 Bft) 0 min 2,4 km/h (1 Bft)
22.11.2009 00:29 17,4 C 12,4 C 0,0 UV-I 0,0 C 63 % 85 % 0 % 1013,5 hPa 0,0 l/m 2,2 km/h (1 Bft) 0 min 5,1 km/h (1 Bft)
22.11.2009 00:34 17,2 C 12,5 C 0,0 UV-I 0,0 C 63 % 85 % 0 % 1013,4 hPa 0,0 l/m 4,1 km/h (1 Bft) 0 min 14,4 km/h (3 Bft)
22.11.2009 00:39 17,3 C 12,4 C 0,0 UV-I 0,0 C 63 % 85 % 0 % 1013,4 hPa 0,0 l/m 5,1 km/h (1 Bft) 0 min 16,8 km/h (3 Bft)
22.11.2009 00:44 17,2 C 12,4 C 0,0 UV-I 0,0 C 63 % 85 % 0 % 1013,4 hPa 0,0 l/m 5,1 km/h (1 Bft) 0 min 10,1 km/h (2 Bft)
22.11.2009 00:49 17,3 C 12,4 C 0,0 UV-I 0,0 C 63 % 85 % 0 % 1013,4 hPa 0,0 l/m 4,3 km/h (1 Bft) 0 min 10,6 km/h (2 Bft)
22.11.2009 00:54 17,3 C 12,4 C 0,0 UV-I 0,0 C 63 % 85 % 0 % 1012,9 hPa 0,0 l/m 5,1 km/h (1 Bft) 0 min 10,8 km/h (2 Bft)
22.11.2009 00:59 17,2 C 12,4 C 0,0 UV-I 0,0 C 63 % 85 % 0 % 1012,9 hPa 0,0 l/m 5,5 km/h (1 Bft) 0 min 4,6 km/h (1 Bft)
22.11.2009 01:04 17,2 C 12,4 C 0,0 UV-I 0,0 C 63 % 85 % 0 % 1012,9 hPa 0,0 l/m 4,1 km/h (1 Bft) 0 min 6,7 km/h (2 Bft)
22.11.2009 01:09 17,2 C 12,4 C 0,0 UV-I 0,0 C 63 % 85 % 0 % 1012,9 hPa 0,0 l/m 2,9 km/h (1 Bft) 0 min 3,6 km/h (1 Bft)
22.11.2009 01:14 17,2 C 12,5 C 0,0 UV-I 0,0 C 63 % 85 % 0 % 1012,8 hPa 0,0 l/m 3,1 km/h (1 Bft) 0 min 3,6 km/h (1 Bft)
22.11.2009 01:19 17,2 C 12,4 C 0,0 UV-I 0,0 C 63 % 85 % 0 % 1012,8 hPa 0,0 l/m 4,1 km/h (1 Bft) 0 min 6,0 km/h (2 Bft)
22.11.2009 01:24 17,2 C 12,4 C 0,0 UV-I 0,0 C 63 % 85 % 0 % 1012,8 hPa 0,0 l/m 4,6 km/h (1 Bft) 0 min 7,5 km/h (2 Bft)
22.11.2009 01:29 17,2 C 12,5 C 0,0 UV-I 0,0 C 63 % 85 % 0 % 1012,8 hPa 0,0 l/m 5,8 km/h (2 Bft) 0 min 10,3 km/h (2 Bft)
22.11.2009 01:34 17,2 C 12,5 C 0,0 UV-I 0,0 C 63 % 85 % 0 % 1012,3 hPa 0,0 l/m 7,0 km/h (2 Bft) 0 min 13,7 km/h (3 Bft)
22.11.2009 01:39 17,2 C 12,4 C 0,0 UV-I 0,0 C 63 % 85 % 0 % 1012,3 hPa 0,0 l/m 7,0 km/h (2 Bft) 0 min 12,5 km/h (3 Bft)
22.11.2009 01:44 17,2 C 12,4 C 0,0 UV-I 0,0 C 63 % 85 % 0 % 1012,3 hPa 0,0 l/m 7,7 km/h (2 Bft) 0 min 18,0 km/h (3 Bft)
22.11.2009 01:49 17,2 C 12,4 C 0,0 UV-I 0,0 C 63 % 84 % 0 % 1012,3 hPa 0,0 l/m 7,2 km/h (2 Bft) 0 min 9,1 km/h (2 Bft)
22.11.2009 01:54 17,2 C 12,4 C 0,0 UV-I 0,0 C 63 % 84 % 0 % 1011,9 hPa 0,0 l/m 7,5 km/h (2 Bft) 0 min 13,0 km/h (3 Bft)
22.11.2009 01:59 17,1 C 12,4 C 0,0 UV-I 0,0 C 62 % 84 % 0 % 1011,9 hPa 0,0 l/m 7,9 km/h (2 Bft) 0 min 22,4 km/h (4 Bft)
22.11.2009 02:04 17,1 C 12,4 C 0,0 UV-I 0,0 C 62 % 84 % 0 % 1011,9 hPa 0,0 l/m 9,1 km/h (2 Bft) 0 min 10,8 km/h (2 Bft)
22.11.2009 02:09 17,1 C 12,4 C 0,0 UV-I 0,0 C 62 % 84 % 0 % 1011,9 hPa 0,0 l/m 9,4 km/h (2 Bft) 0 min 7,0 km/h (2 Bft)
22.11.2009 02:14 17,1 C 12,5 C 0,0 UV-I 0,0 C 62 % 84 % 0 % 1011,8 hPa 0,0 l/m 8,2 km/h (2 Bft) 0 min 8,9 km/h (2 Bft)
22.11.2009 02:19 17,0 C 12,5 C 0,0 UV-I 0,0 C 63 % 84 % 0 % 1011,8 hPa 0,0 l/m 6,0 km/h (2 Bft) 0 min 0,0 km/h (0 Bft)
22.11.2009 02:24 17,0 C 12,4 C 0,0 UV-I 0,0 C 62 % 85 % 0 % 1011,8 hPa 0,0 l/m 5,3 km/h (1 Bft) 0 min 9,1 km/h (2 Bft)
22.11.2009 02:29 17,0 C 12,4 C 0,0 UV-I 0,0 C 63 % 85 % 0 % 1011,8 hPa 0,0 l/m 2,9 km/h (1 Bft) 0 min 2,4 km/h (1 Bft)
22.11.2009 02:34 17,1 C 12,3 C 0,0 UV-I 0,0 C 63 % 84 % 0 % 1011,8 hPa 0,0 l/m 3,4 km/h (1 Bft) 0 min 3,8 km/h (1 Bft)
22.11.2009 02:39 17,1 C 12,3 C 0,0 UV-I 0,0 C 63 % 84 % 0 % 1011,8 hPa 0,0 l/m 3,6 km/h (1 Bft) 0 min 4,8 km/h (1 Bft)
22.11.2009 02:44 17,1 C 12,3 C 0,0 UV-I 0,0 C 63 % 84 % 0 % 1011,8 hPa 0,0 l/m 2,9 km/h (1 Bft) 0 min 6,3 km/h (2 Bft)
22.11.2009 02:49 17,1 C 12,3 C 0,0 UV-I 0,0 C 63 % 85 % 0 % 1011,8 hPa 0,0 l/m 2,9 km/h (1 Bft) 0 min 7,7 km/h (2 Bft)
22.11.2009 02:54 17,1 C 12,2 C 0,0 UV-I 0,0 C 63 % 85 % 0 % 1011,8 hPa 0,0 l/m 3,6 km/h (1 Bft) 0 min 7,7 km/h (2 Bft)
22.11.2009 02:59 17,1 C 12,2 C 0,0 UV-I 0,0 C 62 % 85 % 0 % 1011,8 hPa 0,0 l/m 6,0 km/h (2 Bft) 0 min 12,8 km/h (3 Bft)
22.11.2009 03:04 17,1 C 12,3 C 0,0 UV-I 0,0 C 62 % 85 % 0 % 1011,8 hPa 0,0 l/m 6,3 km/h (2 Bft) 0 min 8,7 km/h (2 Bft)
22.11.2009 03:09 17,1 C 12,4 C 0,0 UV-I 0,0 C 62 % 85 % 0 % 1011,8 hPa 0,0 l/m 7,0 km/h (2 Bft) 0 min 8,7 km/h (2 Bft)
22.11.2009 03:14 17,1 C 12,5 C 0,0 UV-I 0,0 C 62 % 85 % 0 % 1011,6 hPa 0,0 l/m 6,7 km/h (2 Bft) 0 min 9,9 km/h (2 Bft)
22.11.2009 03:19 17,1 C 12,4 C 0,0 UV-I 0,0 C 62 % 85 % 0 % 1011,6 hPa 0,0 l/m 6,7 km/h (2 Bft) 0 min 8,7 km/h (2 Bft)
22.11.2009 03:24 17,1 C 12,4 C 0,0 UV-I 0,1 C 62 % 85 % 0 % 1011,6 hPa 0,0 l/m 6,5 km/h (2 Bft) 0 min 10,1 km/h (2 Bft)
22.11.2009 03:29 17,1 C 12,5 C 0,0 UV-I 0,1 C 62 % 84 % 0 % 1011,6 hPa 0,0 l/m 6,7 km/h (2 Bft) 0 min 7,5 km/h (2 Bft)
22.11.2009 03:34 17,1 C 12,5 C 0,0 UV-I 0,2 C 62 % 84 % 0 % 1011,1 hPa 0,0 l/m 7,2 km/h (2 Bft) 0 min 7,9 km/h (2 Bft)
22.11.2009 03:39 17,2 C 12,6 C 0,0 UV-I 0,2 C 62 % 84 % 0 % 1011,1 hPa 0,0 l/m 6,7 km/h (2 Bft) 0 min 8,4 km/h (2 Bft)
22.11.2009 03:44 17,2 C 12,7 C 0,0 UV-I 0,2 C 62 % 83 % 0 % 1011,1 hPa 0,0 l/m 7,2 km/h (2 Bft) 0 min 8,4 km/h (2 Bft)
22.11.2009 03:49 17,2 C 12,6 C 0,0 UV-I 0,3 C 62 % 83 % 0 % 1011,1 hPa 0,0 l/m 6,5 km/h (2 Bft) 0 min 9,6 km/h (2 Bft)
22.11.2009 03:54 17,2 C 12,7 C 0,0 UV-I 0,1 C 62 % 83 % 0 % 1011,1 hPa 0,0 l/m 5,3 km/h (1 Bft) 0 min 12,0 km/h (2 Bft)
22.11.2009 03:59 17,2 C 12,8 C 0,0 UV-I 0,0 C 62 % 83 % 0 % 1011,1 hPa 0,0 l/m 5,5 km/h (1 Bft) 0 min 3,4 km/h (1 Bft)
22.11.2009 04:04 17,2 C 12,9 C 0,0 UV-I 0,0 C 62 % 83 % 0 % 1011,1 hPa 0,0 l/m 6,3 km/h (2 Bft) 0 min 9,1 km/h (2 Bft)
22.11.2009 04:09 17,2 C 12,8 C 0,0 UV-I 0,0 C 62 % 83 % 0 % 1011,1 hPa 0,0 l/m 5,5 km/h (1 Bft) 0 min 5,3 km/h (1 Bft)
22.11.2009 04:14 17,2 C 12,8 C 0,0 UV-I 0,0 C 62 % 83 % 0 % 1010,6 hPa 0,0 l/m 6,7 km/h (2 Bft) 0 min 14,2 km/h (3 Bft)
22.11.2009 04:19 17,2 C 12,9 C 0,0 UV-I 0,0 C 62 % 83 % 0 % 1010,6 hPa 0,0 l/m 7,2 km/h (2 Bft) 0 min 10,3 km/h (2 Bft)
22.11.2009 04:24 17,2 C 12,9 C 0,0 UV-I 0,0 C 62 % 83 % 0 % 1010,6 hPa 0,0 l/m 6,3 km/h (2 Bft) 0 min 0,0 km/h (0 Bft)
22.11.2009 04:29 17,2 C 12,9 C 0,0 UV-I 0,0 C 62 % 82 % 0 % 1010,6 hPa 0,0 l/m 4,8 km/h (1 Bft) 0 min 8,4 km/h (2 Bft)
22.11.2009 04:33 17,2 C 12,9 C 0,0 UV-I 0,1 C 62 % 82 % 0 % 1010,4 hPa 0,0 l/m 4,8 km/h (1 Bft) 0 min 3,6 km/h (1 Bft)
22.11.2009 04:34 17,2 C 12,9 C 0,0 UV-I 0,1 C 62 % 82 % 0 % 1010,4 hPa 0,0 l/m 4,8 km/h (1 Bft) 0 min 3,6 km/h (1 Bft)
22.11.2009 04:36 17,2 C 12,9 C 0,0 UV-I 0,1 C 62 % 82 % 0 % 1010,4 hPa 0,0 l/m 4,8 km/h (1 Bft) 0 min 2,6 km/h (1 Bft)
22.11.2009 04:38 17,2 C 12,9 C 0,0 UV-I 0,1 C 62 % 82 % 0 % 1010,4 hPa 0,0 l/m 4,6 km/h (1 Bft) 0 min 6,7 km/h (2 Bft)
22.11.2009 04:40 17,2 C 12,9 C 0,0 UV-I 0,1 C 62 % 82 % 0 % 1010,4 hPa 0,0 l/m 4,1 km/h (1 Bft) 0 min 3,6 km/h (1 Bft)
22.11.2009 04:42 17,2 C 13,0 C 0,0 UV-I 0,0 C 62 % 82 % 0 % 1010,4 hPa 0,0 l/m 3,6 km/h (1 Bft) 0 min 3,8 km/h (1 Bft)
22.11.2009 04:44 17,2 C 13,0 C 0,0 UV-I 0,1 C 62 % 82 % 0 % 1010,4 hPa 0,0 l/m 3,1 km/h (1 Bft) 0 min 5,8 km/h (2 Bft)
22.11.2009 04:46 17,2 C 13,0 C 0,0 UV-I 0,1 C 62 % 82 % 0 % 1010,4 hPa 0,0 l/m 3,4 km/h (1 Bft) 0 min 3,8 km/h (1 Bft)
22.11.2009 04:48 17,2 C 13,1 C 0,0 UV-I 0,0 C 62 % 82 % 0 % 1010,4 hPa 0,0 l/m 3,6 km/h (1 Bft) 0 min 5,3 km/h (1 Bft)
22.11.2009 04:50 17,2 C 13,1 C 0,0 UV-I 0,0 C 62 % 82 % 0 % 1010,4 hPa 0,0 l/m 3,4 km/h (1 Bft) 0 min 6,5 km/h (2 Bft)
22.11.2009 04:52 17,2 C 13,1 C 0,0 UV-I 0,0 C 62 % 82 % 0 % 1010,4 hPa 0,0 l/m 3,8 km/h (1 Bft) 0 min 6,7 km/h (2 Bft)
22.11.2009 04:54 17,2 C 13,0 C 0,0 UV-I 0,0 C 62 % 81 % 0 % 1010,7 hPa 0,0 l/m 4,1 km/h (1 Bft) 0 min 7,5 km/h (2 Bft)
22.11.2009 04:56 17,2 C 13,1 C 0,0 UV-I 0,0 C 62 % 81 % 0 % 1010,7 hPa 0,0 l/m 4,6 km/h (1 Bft) 0 min 7,5 km/h (2 Bft)
22.11.2009 04:58 17,2 C 13,1 C 0,0 UV-I 0,0 C 62 % 81 % 0 % 1010,7 hPa 0,0 l/m 4,6 km/h (1 Bft) 0 min 3,4 km/h (1 Bft)
22.11.2009 05:00 17,2 C 13,1 C 0,0 UV-I 0,1 C 62 % 81 % 0 % 1010,7 hPa 0,0 l/m 5,1 km/h (1 Bft) 0 min 4,1 km/h (1 Bft)
22.11.2009 05:02 17,2 C 13,1 C 0,0 UV-I 0,1 C 62 % 81 % 0 % 1010,7 hPa 0,0 l/m 5,5 km/h (1 Bft) 0 min 13,0 km/h (3 Bft)
22.11.2009 05:04 17,2 C 13,1 C 0,0 UV-I 0,1 C 62 % 81 % 0 % 1010,7 hPa 0,0 l/m 6,0 km/h (2 Bft) 0 min 6,5 km/h (2 Bft)
22.11.2009 05:06 17,2 C 13,1 C 0,0 UV-I 0,1 C 62 % 81 % 0 % 1010,7 hPa 0,0 l/m 5,5 km/h (1 Bft) 0 min 5,1 km/h (1 Bft)
22.11.2009 05:08 17,2 C 13,1 C 0,0 UV-I 0,1 C 62 % 81 % 0 % 1010,7 hPa 0,0 l/m 5,8 km/h (2 Bft) 0 min 12,0 km/h (2 Bft)
22.11.2009 05:10 17,2 C 13,1 C 0,0 UV-I 0,2 C 62 % 81 % 0 % 1010,7 hPa 0,0 l/m 6,3 km/h (2 Bft) 0 min 6,3 km/h (2 Bft)
22.11.2009 05:12 17,2 C 13,1 C 0,0 UV-I 0,2 C 62 % 81 % 0 % 1010,7 hPa 0,0 l/m 6,3 km/h (2 Bft) 0 min 7,9 km/h (2 Bft)
22.11.2009 05:14 17,2 C 13,2 C 0,0 UV-I 0,1 C 62 % 81 % 0 % 1010,5 hPa 0,0 l/m 6,3 km/h (2 Bft) 0 min 6,0 km/h (2 Bft)
22.11.2009 05:16 17,2 C 13,2 C 0,0 UV-I 0,1 C 62 % 81 % 0 % 1010,5 hPa 0,0 l/m 6,0 km/h (2 Bft) 0 min 7,5 km/h (2 Bft)
22.11.2009 05:18 17,2 C 13,2 C 0,0 UV-I 0,1 C 62 % 81 % 0 % 1010,5 hPa 0,0 l/m 6,0 km/h (2 Bft) 0 min 4,6 km/h (1 Bft)
22.11.2009 05:20 17,2 C 13,2 C 0,0 UV-I 0,0 C 62 % 81 % 0 % 1010,5 hPa 0,0 l/m 5,1 km/h (1 Bft) 0 min 3,6 km/h (1 Bft)
22.11.2009 05:22 17,2 C 13,2 C 0,0 UV-I 0,0 C 61 % 81 % 0 % 1010,5 hPa 0,0 l/m 5,3 km/h (1 Bft) 0 min 9,9 km/h (2 Bft)
22.11.2009 05:24 17,2 C 13,2 C 0,0 UV-I 0,0 C 61 % 81 % 0 % 1010,5 hPa 0,0 l/m 5,1 km/h (1 Bft) 0 min 5,5 km/h (1 Bft)
22.11.2009 05:26 17,2 C 13,2 C 0,0 UV-I 0,0 C 61 % 81 % 0 % 1010,5 hPa 0,0 l/m 4,6 km/h (1 Bft) 0 min 12,5 km/h (3 Bft)
22.11.2009 05:28 17,2 C 13,1 C 0,0 UV-I 0,0 C 61 % 81 % 0 % 1010,5 hPa 0,0 l/m 4,6 km/h (1 Bft) 0 min 4,1 km/h (1 Bft)
22.11.2009 05:30 17,2 C 13,1 C 0,0 UV-I 0,0 C 61 % 81 % 0 % 1010,5 hPa 0,0 l/m 4,1 km/h (1 Bft) 0 min 7,0 km/h (2 Bft)
22.11.2009 05:32 17,2 C 13,1 C 0,0 UV-I 0,0 C 61 % 81 % 0 % 1010,5 hPa 0,0 l/m 4,1 km/h (1 Bft) 0 min 2,9 km/h (1 Bft)
22.11.2009 05:34 17,2 C 13,1 C 0,0 UV-I 0,0 C 61 % 81 % 0 % 1010,8 hPa 0,0 l/m 3,6 km/h (1 Bft) 0 min 7,9 km/h (2 Bft)
22.11.2009 05:36 17,2 C 13,1 C 0,0 UV-I 0,0 C 61 % 81 % 0 % 1010,8 hPa 0,0 l/m 3,8 km/h (1 Bft) 0 min 7,7 km/h (2 Bft)
22.11.2009 05:38 17,2 C 13,1 C 0,0 UV-I 0,0 C 61 % 81 % 0 % 1010,8 hPa 0,0 l/m 3,6 km/h (1 Bft) 0 min 7,0 km/h (2 Bft)
22.11.2009 05:40 17,2 C 13,1 C 0,0 UV-I 0,0 C 61 % 81 % 0 % 1010,8 hPa 0,0 l/m 3,6 km/h (1 Bft) 0 min 3,4 km/h (1 Bft)
22.11.2009 05:42 17,2 C 13,1 C 0,0 UV-I 0,0 C 61 % 81 % 0 % 1010,8 hPa 0,0 l/m 3,6 km/h (1 Bft) 0 min 8,4 km/h (2 Bft)
22.11.2009 05:44 17,2 C 13,1 C 0,0 UV-I 0,0 C 61 % 81 % 0 % 1010,8 hPa 0,0 l/m 4,3 km/h (1 Bft) 0 min 4,8 km/h (1 Bft)
22.11.2009 05:46 17,2 C 13,1 C 0,0 UV-I 0,0 C 61 % 82 % 0 % 1010,8 hPa 0,0 l/m 4,6 km/h (1 Bft) 0 min 8,2 km/h (2 Bft)
22.11.2009 05:48 17,2 C 13,1 C 0,0 UV-I 0,0 C 61 % 82 % 0 % 1010,8 hPa 0,0 l/m 4,8 km/h (1 Bft) 0 min 6,7 km/h (2 Bft)
22.11.2009 05:50 17,2 C 13,1 C 0,0 UV-I 0,0 C 62 % 82 % 0 % 1010,8 hPa 0,0 l/m 5,1 km/h (1 Bft) 0 min 7,2 km/h (2 Bft)
22.11.2009 05:52 17,2 C 13,1 C 0,0 UV-I 0,0 C 62 % 82 % 0 % 1010,8 hPa 0,0 l/m 4,8 km/h (1 Bft) 0 min 7,0 km/h (2 Bft)
22.11.2009 05:54 17,2 C 13,0 C 0,0 UV-I 0,0 C 62 % 82 % 0 % 1010,8 hPa 0,1 l/m 4,1 km/h (1 Bft) 0 min 6,0 km/h (2 Bft)
22.11.2009 05:56 17,2 C 13,0 C 0,0 UV-I 0,0 C 62 % 82 % 0 % 1010,8 hPa 0,0 l/m 3,6 km/h (1 Bft) 0 min 5,1 km/h (1 Bft)
22.11.2009 05:58 17,2 C 13,0 C 0,0 UV-I 0,0 C 62 % 83 % 0 % 1010,8 hPa 0,0 l/m 3,4 km/h (1 Bft) 0 min 5,5 km/h (1 Bft)
22.11.2009 06:00 17,2 C 13,0 C 0,0 UV-I 0,0 C 62 % 83 % 0 % 1010,8 hPa 0,1 l/m 3,8 km/h (1 Bft) 0 min 6,0 km/h (2 Bft)
22.11.2009 06:02 17,2 C 13,1 C 0,0 UV-I 0,0 C 62 % 83 % 0 % 1010,8 hPa 0,0 l/m 3,8 km/h (1 Bft) 0 min 5,3 km/h (1 Bft)
22.11.2009 06:04 17,2 C 13,1 C 0,0 UV-I 0,0 C 62 % 83 % 0 % 1010,8 hPa 0,0 l/m 3,8 km/h (1 Bft) 0 min 5,3 km/h (1 Bft)
22.11.2009 06:06 17,2 C 13,1 C 0,0 UV-I 0,0 C 62 % 84 % 0 % 1010,8 hPa 0,1 l/m 4,1 km/h (1 Bft) 0 min 12,0 km/h (2 Bft)
22.11.2009 06:08 17,2 C 13,0 C 0,0 UV-I 0,0 C 62 % 84 % 0 % 1010,8 hPa 0,0 l/m 4,3 km/h (1 Bft) 0 min 3,8 km/h (1 Bft)
22.11.2009 06:10 17,2 C 13,0 C 0,0 UV-I 0,0 C 62 % 84 % 0 % 1010,8 hPa 0,0 l/m 4,1 km/h (1 Bft) 0 min 5,8 km/h (2 Bft)
22.11.2009 06:12 17,2 C 12,9 C 0,0 UV-I 0,0 C 62 % 84 % 0 % 1010,8 hPa 0,0 l/m 3,6 km/h (1 Bft) 0 min 2,9 km/h (1 Bft)
22.11.2009 06:14 17,2 C 12,9 C 0,0 UV-I 0,0 C 62 % 84 % 0 % 1009,8 hPa 0,1 l/m 4,1 km/h (1 Bft) 0 min 0,0 km/h (0 Bft)
22.11.2009 06:16 17,2 C 12,9 C 0,0 UV-I 0,0 C 62 % 84 % 0 % 1009,8 hPa 0,0 l/m 4,1 km/h (1 Bft) 0 min 3,1 km/h (1 Bft)
22.11.2009 06:18 17,2 C 12,8 C 0,0 UV-I 0,0 C 63 % 85 % 0 % 1009,8 hPa 0,0 l/m 4,1 km/h (1 Bft) 0 min 6,7 km/h (2 Bft)
22.11.2009 06:20 17,2 C 12,8 C 0,0 UV-I 0,0 C 63 % 85 % 0 % 1009,8 hPa 0,0 l/m 4,1 km/h (1 Bft) 0 min 5,8 km/h (2 Bft)
22.11.2009 06:22 17,2 C 12,8 C 0,0 UV-I 0,0 C 63 % 85 % 0 % 1009,8 hPa 0,0 l/m 4,3 km/h (1 Bft) 0 min 7,7 km/h (2 Bft)
22.11.2009 06:24 17,2 C 12,8 C 0,0 UV-I 0,0 C 63 % 85 % 0 % 1009,8 hPa 0,0 l/m 4,3 km/h (1 Bft) 0 min 4,1 km/h (1 Bft)
22.11.2009 06:26 17,2 C 12,8 C 0,0 UV-I 0,0 C 63 % 85 % 0 % 1009,8 hPa 0,0 l/m 5,3 km/h (1 Bft) 0 min 8,2 km/h (2 Bft)
22.11.2009 06:28 17,2 C 12,8 C 0,0 UV-I 0,0 C 63 % 85 % 0 % 1009,8 hPa 0,0 l/m 5,5 km/h (1 Bft) 0 min 7,0 km/h (2 Bft)
22.11.2009 06:30 17,2 C 12,8 C 0,0 UV-I 0,0 C 63 % 85 % 0 % 1009,8 hPa 0,0 l/m 5,3 km/h (1 Bft) 0 min 3,4 km/h (1 Bft)
22.11.2009 06:32 17,2 C 12,7 C 0,0 UV-I 0,0 C 63 % 85 % 0 % 1009,8 hPa 0,0 l/m 5,1 km/h (1 Bft) 0 min 5,5 km/h (1 Bft)
22.11.2009 06:34 17,2 C 12,7 C 0,0 UV-I 0,0 C 63 % 85 % 0 % 1009,8 hPa 0,0 l/m 4,3 km/h (1 Bft) 0 min 5,8 km/h (2 Bft)
22.11.2009 06:36 17,2 C 12,7 C 0,0 UV-I 0,0 C 63 % 85 % 0 % 1009,8 hPa 0,0 l/m 4,1 km/h (1 Bft) 0 min 10,3 km/h (2 Bft)
22.11.2009 06:38 17,2 C 12,7 C 0,0 UV-I 0,0 C 63 % 85 % 0 % 1009,8 hPa 0,0 l/m 4,1 km/h (1 Bft) 0 min 6,7 km/h (2 Bft)
22.11.2009 06:40 17,2 C 12,7 C 0,0 UV-I 0,0 C 63 % 86 % 0 % 1009,8 hPa 0,0 l/m 4,1 km/h (1 Bft) 0 min 10,3 km/h (2 Bft)
22.11.2009 06:42 17,2 C 12,7 C 0,0 UV-I 0,0 C 63 % 86 % 0 % 1009,8 hPa 0,0 l/m 4,3 km/h (1 Bft) 0 min 3,1 km/h (1 Bft)
22.11.2009 06:44 17,2 C 12,6 C 0,0 UV-I 0,0 C 63 % 86 % 0 % 1009,8 hPa 0,0 l/m 5,3 km/h (1 Bft) 0 min 13,0 km/h (3 Bft)
22.11.2009 06:46 17,2 C 12,6 C 0,0 UV-I 0,0 C 63 % 86 % 0 % 1009,8 hPa 0,0 l/m 6,5 km/h (2 Bft) 0 min 9,9 km/h (2 Bft)
22.11.2009 06:48 17,2 C 12,7 C 0,0 UV-I 0,0 C 63 % 86 % 0 % 1009,8 hPa 0,0 l/m 7,2 km/h (2 Bft) 0 min 15,6 km/h (3 Bft)
22.11.2009 06:50 17,2 C 12,7 C 0,0 UV-I 0,0 C 63 % 85 % 0 % 1009,8 hPa 0,0 l/m 7,5 km/h (2 Bft) 0 min 8,4 km/h (2 Bft)
22.11.2009 06:52 17,2 C 12,7 C 0,0 UV-I 0,0 C 63 % 85 % 0 % 1009,8 hPa 0,0 l/m 7,0 km/h (2 Bft) 0 min 24,8 km/h (4 Bft)
22.11.2009 06:54 17,2 C 12,7 C 0,0 UV-I 0,0 C 63 % 85 % 0 % 1009,9 hPa 0,0 l/m 7,2 km/h (2 Bft) 0 min 9,9 km/h (2 Bft)
22.11.2009 06:56 17,2 C 12,7 C 0,0 UV-I 0,0 C 63 % 85 % 0 % 1009,9 hPa 0,0 l/m 6,5 km/h (2 Bft) 0 min 7,2 km/h (2 Bft)
22.11.2009 06:58 17,2 C 12,7 C 0,0 UV-I 0,0 C 63 % 86 % 0 % 1009,9 hPa 0,0 l/m 6,5 km/h (2 Bft) 0 min 10,1 km/h (2 Bft)
22.11.2009 07:00 17,2 C 12,7 C 0,0 UV-I 0,0 C 63 % 85 % 0 % 1009,9 hPa 0,0 l/m 6,3 km/h (2 Bft) 0 min 6,5 km/h (2 Bft)
22.11.2009 07:02 17,2 C 12,7 C 0,0 UV-I 0,0 C 63 % 85 % 0 % 1009,9 hPa 0,0 l/m 7,0 km/h (2 Bft) 0 min 9,4 km/h (2 Bft)
22.11.2009 07:04 17,2 C 12,7 C 0,0 UV-I 0,0 C 63 % 85 % 0 % 1009,9 hPa 0,0 l/m 7,7 km/h (2 Bft) 0 min 9,1 km/h (2 Bft)
22.11.2009 07:06 17,2 C 12,7 C 0,0 UV-I 0,0 C 63 % 85 % 0 % 1009,9 hPa 0,0 l/m 7,2 km/h (2 Bft) 0 min 8,2 km/h (2 Bft)
22.11.2009 07:08 17,2 C 12,8 C 0,0 UV-I 0,0 C 63 % 85 % 0 % 1009,9 hPa 0,0 l/m 7,0 km/h (2 Bft) 0 min 5,1 km/h (1 Bft)
22.11.2009 07:10 17,2 C 12,8 C 0,0 UV-I 0,0 C 63 % 85 % 0 % 1009,9 hPa 0,0 l/m 6,5 km/h (2 Bft) 0 min 7,2 km/h (2 Bft)
22.11.2009 07:12 17,2 C 12,8 C 0,0 UV-I 0,0 C 63 % 85 % 0 % 1009,9 hPa 0,0 l/m 5,8 km/h (2 Bft) 0 min 2,9 km/h (1 Bft)
22.11.2009 07:14 17,2 C 12,8 C 0,0 UV-I 0,0 C 63 % 85 % 0 % 1009,8 hPa 0,0 l/m 5,3 km/h (1 Bft) 0 min 7,9 km/h (2 Bft)
22.11.2009 07:16 17,2 C 12,8 C 0,0 UV-I 0,0 C 63 % 85 % 0 % 1009,8 hPa 0,0 l/m 5,1 km/h (1 Bft) 0 min 2,4 km/h (1 Bft)
22.11.2009 07:18 17,2 C 12,9 C 0,0 UV-I 0,0 C 63 % 85 % 0 % 1009,8 hPa 0,0 l/m 4,3 km/h (1 Bft) 0 min 3,6 km/h (1 Bft)
22.11.2009 07:20 17,2 C 12,8 C 0,0 UV-I 0,0 C 63 % 85 % 0 % 1009,8 hPa 0,0 l/m 4,6 km/h (1 Bft) 0 min 12,0 km/h (2 Bft)
22.11.2009 07:22 17,2 C 12,8 C 0,0 UV-I 0,0 C 63 % 85 % 0 % 1009,8 hPa 0,0 l/m 3,8 km/h (1 Bft) 0 min 0,0 km/h (0 Bft)
22.11.2009 07:24 17,2 C 12,8 C 0,0 UV-I 0,0 C 63 % 85 % 0 % 1009,8 hPa 0,2 l/m 3,4 km/h (1 Bft) 0 min 0,0 km/h (0 Bft)
22.11.2009 07:26 17,2 C 12,8 C 0,0 UV-I 0,0 C 63 % 85 % 0 % 1009,8 hPa 0,0 l/m 2,6 km/h (1 Bft) 0 min 4,3 km/h (1 Bft)
22.11.2009 07:28 17,2 C 12,9 C 0,0 UV-I 0,0 C 63 % 85 % 0 % 1009,8 hPa 0,1 l/m 2,9 km/h (1 Bft) 0 min 6,3 km/h (2 Bft)
22.11.2009 07:30 17,2 C 12,9 C 0,0 UV-I 0,0 C 63 % 86 % 0 % 1009,8 hPa 0,1 l/m 3,1 km/h (1 Bft) 0 min 3,8 km/h (1 Bft)
22.11.2009 07:32 17,2 C 12,9 C 0,0 UV-I 0,0 C 64 % 86 % 0 % 1009,8 hPa 0,0 l/m 3,1 km/h (1 Bft) 0 min 10,3 km/h (2 Bft)
22.11.2009 07:34 17,2 C 12,8 C 0,0 UV-I 0,0 C 64 % 86 % 0 % 1009,7 hPa 0,1 l/m 3,8 km/h (1 Bft) 0 min 6,3 km/h (2 Bft)
22.11.2009 07:36 17,2 C 12,8 C 0,0 UV-I 0,0 C 64 % 86 % 0 % 1009,7 hPa 0,0 l/m 4,3 km/h (1 Bft) 0 min 9,1 km/h (2 Bft)
22.11.2009 07:38 17,2 C 12,8 C 0,0 UV-I 0,0 C 64 % 86 % 0 % 1009,7 hPa 0,0 l/m 4,8 km/h (1 Bft) 0 min 6,5 km/h (2 Bft)
22.11.2009 07:40 17,2 C 12,9 C 0,0 UV-I 0,0 C 64 % 87 % 0 % 1009,7 hPa 0,1 l/m 5,1 km/h (1 Bft) 0 min 13,2 km/h (3 Bft)
22.11.2009 07:42 17,1 C 12,9 C 0,0 UV-I 0,0 C 64 % 87 % 0 % 1009,7 hPa 0,0 l/m 5,5 km/h (1 Bft) 0 min 7,9 km/h (2 Bft)
22.11.2009 07:44 17,1 C 12,9 C 0,0 UV-I 0,0 C 64 % 87 % 0 % 1009,7 hPa 0,2 l/m 5,5 km/h (1 Bft) 0 min 4,8 km/h (1 Bft)
22.11.2009 07:46 17,1 C 12,9 C 0,0 UV-I 0,0 C 64 % 88 % 0 % 1009,7 hPa 0,1 l/m 5,8 km/h (2 Bft) 0 min 9,9 km/h (2 Bft)
22.11.2009 07:48 17,1 C 12,8 C 0,0 UV-I 0,0 C 64 % 88 % 0 % 1009,7 hPa 0,0 l/m 6,5 km/h (2 Bft) 0 min 14,2 km/h (3 Bft)
22.11.2009 07:50 17,1 C 12,8 C 0,0 UV-I 0,0 C 64 % 88 % 0 % 1009,7 hPa 0,1 l/m 6,3 km/h (2 Bft) 0 min 3,1 km/h (1 Bft)
22.11.2009 07:52 17,1 C 12,8 C 0,0 UV-I 0,0 C 64 % 88 % 0 % 1009,7 hPa 0,1 l/m 6,0 km/h (2 Bft) 0 min 12,5 km/h (3 Bft)
22.11.2009 07:54 17,1 C 12,9 C 0,0 UV-I 0,0 C 64 % 88 % 0 % 1010,4 hPa 0,0 l/m 5,8 km/h (2 Bft) 0 min 11,5 km/h (2 Bft)
22.11.2009 07:56 17,0 C 12,9 C 0,0 UV-I 0,0 C 64 % 88 % 0 % 1010,4 hPa 0,2 l/m 6,5 km/h (2 Bft) 0 min 7,5 km/h (2 Bft)
22.11.2009 07:58 17,0 C 12,8 C 0,0 UV-I 0,0 C 65 % 89 % 0 % 1010,4 hPa 0,0 l/m 6,5 km/h (2 Bft) 0 min 9,4 km/h (2 Bft)
22.11.2009 08:00 17,0 C 12,8 C 0,0 UV-I 0,0 C 65 % 89 % 0 % 1010,4 hPa 0,0 l/m 6,5 km/h (2 Bft) 0 min 5,1 km/h (1 Bft)
22.11.2009 08:02 17,0 C 12,8 C 0,0 UV-I 0,0 C 65 % 89 % 0 % 1010,4 hPa 0,1 l/m 7,0 km/h (2 Bft) 0 min 10,3 km/h (2 Bft)
22.11.2009 08:04 17,0 C 12,7 C 0,0 UV-I 0,0 C 65 % 89 % 0 % 1010,4 hPa 0,2 l/m 6,3 km/h (2 Bft) 0 min 8,9 km/h (2 Bft)
22.11.2009 08:06 17,0 C 12,7 C 0,0 UV-I 0,0 C 65 % 89 % 0 % 1010,4 hPa 0,0 l/m 6,0 km/h (2 Bft) 0 min 7,7 km/h (2 Bft)
22.11.2009 08:08 17,0 C 12,7 C 0,0 UV-I 0,0 C 65 % 90 % 0 % 1010,4 hPa 0,1 l/m 6,3 km/h (2 Bft) 0 min 12,3 km/h (3 Bft)
22.11.2009 08:10 17,0 C 12,7 C 0,0 UV-I 0,0 C 65 % 90 % 0 % 1010,4 hPa 0,2 l/m 6,3 km/h (2 Bft) 0 min 12,8 km/h (3 Bft)
22.11.2009 08:12 17,0 C 12,7 C 0,0 UV-I 0,0 C 66 % 90 % 0 % 1010,4 hPa 0,0 l/m 7,0 km/h (2 Bft) 0 min 13,7 km/h (3 Bft)
22.11.2009 08:14 17,0 C 12,7 C 0,0 UV-I 0,0 C 66 % 90 % 0 % 1010,6 hPa 0,1 l/m 7,5 km/h (2 Bft) 0 min 5,1 km/h (1 Bft)
22.11.2009 08:16 16,9 C 12,7 C 0,0 UV-I 0,0 C 66 % 90 % 0 % 1010,6 hPa 0,1 l/m 7,2 km/h (2 Bft) 0 min 7,0 km/h (2 Bft)
22.11.2009 08:18 16,9 C 12,7 C 0,0 UV-I 0,0 C 66 % 90 % 0 % 1010,6 hPa 0,0 l/m 7,5 km/h (2 Bft) 0 min 11,5 km/h (2 Bft)
22.11.2009 08:20 16,9 C 12,7 C 0,0 UV-I 0,0 C 66 % 90 % 0 % 1010,6 hPa 0,1 l/m 7,5 km/h (2 Bft) 0 min 11,3 km/h (2 Bft)
22.11.2009 08:22 16,9 C 12,7 C 0,0 UV-I 0,0 C 66 % 90 % 0 % 1010,6 hPa 0,0 l/m 7,5 km/h (2 Bft) 0 min 7,2 km/h (2 Bft)
22.11.2009 08:24 16,9 C 12,7 C 0,0 UV-I 0,0 C 66 % 90 % 0 % 1010,6 hPa 0,0 l/m 7,2 km/h (2 Bft) 0 min 7,5 km/h (2 Bft)
22.11.2009 08:26 16,8 C 12,6 C 0,0 UV-I 0,0 C 66 % 89 % 0 % 1010,6 hPa 0,0 l/m 7,5 km/h (2 Bft) 0 min 9,4 km/h (2 Bft)
22.11.2009 08:28 16,8 C 12,7 C 0,0 UV-I 0,0 C 66 % 89 % 0 % 1010,6 hPa 0,0 l/m 7,5 km/h (2 Bft) 0 min 9,1 km/h (2 Bft)
22.11.2009 08:30 16,8 C 12,7 C 0,0 UV-I 0,0 C 66 % 89 % 0 % 1010,6 hPa 0,0 l/m 6,7 km/h (2 Bft) 0 min 9,9 km/h (2 Bft)
22.11.2009 08:32 16,8 C 12,6 C 0,0 UV-I 0,0 C 66 % 89 % 0 % 1010,6 hPa 0,0 l/m 6,5 km/h (2 Bft) 0 min 14,9 km/h (3 Bft)
22.11.2009 08:34 16,8 C 12,5 C 0,0 UV-I 0,0 C 66 % 89 % 0 % 1010,4 hPa 0,0 l/m 6,3 km/h (2 Bft) 0 min 8,4 km/h (2 Bft)
22.11.2009 08:36 16,8 C 12,4 C 0,0 UV-I 0,0 C 66 % 89 % 0 % 1010,4 hPa 0,0 l/m 6,0 km/h (2 Bft) 0 min 9,1 km/h (2 Bft)
22.11.2009 08:38 16,8 C 12,4 C 0,0 UV-I 0,0 C 66 % 89 % 0 % 1010,4 hPa 0,0 l/m 5,3 km/h (1 Bft) 0 min 4,3 km/h (1 Bft)
22.11.2009 08:40 16,8 C 12,5 C 0,0 UV-I 0,0 C 66 % 89 % 0 % 1010,4 hPa 0,0 l/m 5,3 km/h (1 Bft) 0 min 7,7 km/h (2 Bft)
22.11.2009 08:42 16,8 C 12,5 C 0,0 UV-I 0,0 C 66 % 89 % 0 % 1010,4 hPa 0,0 l/m 4,8 km/h (1 Bft) 0 min 4,1 km/h (1 Bft)
22.11.2009 08:44 16,8 C 12,5 C 0,0 UV-I 0,0 C 66 % 89 % 0 % 1010,4 hPa 0,0 l/m 4,1 km/h (1 Bft) 0 min 4,1 km/h (1 Bft)
22.11.2009 08:46 16,8 C 12,4 C 0,0 UV-I 0,0 C 66 % 89 % 0 % 1010,4 hPa 0,0 l/m 3,6 km/h (1 Bft) 0 min 3,8 km/h (1 Bft)
22.11.2009 08:48 16,8 C 12,3 C 0,0 UV-I 0,0 C 66 % 89 % 0 % 1010,4 hPa 0,0 l/m 3,8 km/h (1 Bft) 0 min 7,5 km/h (2 Bft)
22.11.2009 08:50 16,8 C 12,4 C 0,0 UV-I 0,0 C 66 % 89 % 0 % 1010,4 hPa 0,0 l/m 3,8 km/h (1 Bft) 0 min 5,5 km/h (1 Bft)
22.11.2009 08:52 16,8 C 12,3 C 0,0 UV-I 0,0 C 66 % 89 % 0 % 1010,4 hPa 0,0 l/m 4,1 km/h (1 Bft) 0 min 7,7 km/h (2 Bft)
22.11.2009 08:54 16,8 C 12,3 C 0,0 UV-I 0,0 C 66 % 89 % 0 % 1010,4 hPa 0,0 l/m 4,3 km/h (1 Bft) 0 min 5,8 km/h (2 Bft)
22.11.2009 08:56 16,7 C 12,3 C 0,0 UV-I 0,0 C 66 % 89 % 0 % 1010,4 hPa 0,0 l/m 4,8 km/h (1 Bft) 0 min 5,5 km/h (1 Bft)
22.11.2009 09:00 16,7 C 12,3 C 0,0 UV-I 0,0 C 66 % 89 % 0 % 1010,4 hPa 0,0 l/m 4,8 km/h (1 Bft) 0 min 9,4 km/h (2 Bft)
22.11.2009 09:02 16,7 C 12,3 C 0,0 UV-I 0,0 C 66 % 89 % 0 % 1010,4 hPa 0,0 l/m 4,6 km/h (1 Bft) 0 min 4,1 km/h (1 Bft)
22.11.2009 09:04 16,7 C 12,3 C 0,0 UV-I 0,0 C 66 % 89 % 0 % 1010,4 hPa 0,0 l/m 4,8 km/h (1 Bft) 0 min 11,3 km/h (2 Bft)
22.11.2009 09:06 16,7 C 12,3 C 0,0 UV-I 0,0 C 66 % 88 % 0 % 1010,4 hPa 0,0 l/m 4,6 km/h (1 Bft) 0 min 2,9 km/h (1 Bft)
22.11.2009 09:08 16,7 C 12,3 C 0,0 UV-I 0,0 C 66 % 88 % 0 % 1010,4 hPa 0,0 l/m 4,8 km/h (1 Bft) 0 min 8,9 km/h (2 Bft)
22.11.2009 09:12 16,7 C 12,2 C 0,0 UV-I 0,0 C 66 % 88 % 0 % 1010,4 hPa 0,0 l/m 6,0 km/h (2 Bft) 0 min 20,2 km/h (4 Bft)
22.11.2009 09:14 16,7 C 12,3 C 0,0 UV-I 0,0 C 66 % 88 % 0 % 1010,6 hPa 0,0 l/m 6,5 km/h (2 Bft) 0 min 15,6 km/h (3 Bft)
22.11.2009 09:16 16,7 C 12,3 C 0,0 UV-I 0,0 C 66 % 88 % 0 % 1010,6 hPa 0,0 l/m 6,7 km/h (2 Bft) 0 min 12,3 km/h (3 Bft)
22.11.2009 09:18 16,7 C 12,3 C 0,0 UV-I 0,0 C 66 % 87 % 0 % 1010,6 hPa 0,0 l/m 7,2 km/h (2 Bft) 0 min 7,2 km/h (2 Bft)
22.11.2009 09:20 16,6 C 12,2 C 0,0 UV-I 0,0 C 66 % 87 % 0 % 1010,6 hPa 0,0 l/m 6,7 km/h (2 Bft) 0 min 5,5 km/h (1 Bft)
22.11.2009 09:22 16,6 C 12,3 C 0,0 UV-I 0,0 C 66 % 87 % 0 % 1010,6 hPa 0,0 l/m 6,5 km/h (2 Bft) 0 min 6,7 km/h (2 Bft)
22.11.2009 09:24 16,6 C 12,3 C 0,0 UV-I 0,0 C 66 % 87 % 0 % 1010,6 hPa 0,0 l/m 6,3 km/h (2 Bft) 0 min 6,7 km/h (2 Bft)
22.11.2009 09:26 16,6 C 12,1 C 0,0 UV-I 0,0 C 65 % 87 % 0 % 1010,6 hPa 0,0 l/m 5,5 km/h (1 Bft) 0 min 5,8 km/h (2 Bft)
22.11.2009 09:28 16,6 C 12,1 C 0,0 UV-I 0,0 C 65 % 87 % 0 % 1010,6 hPa 0,0 l/m 4,8 km/h (1 Bft) 0 min 12,5 km/h (3 Bft)
22.11.2009 09:30 16,6 C 12,1 C 0,0 UV-I 0,0 C 65 % 87 % 0 % 1010,6 hPa 0,0 l/m 5,1 km/h (1 Bft) 0 min 5,1 km/h (1 Bft)
22.11.2009 09:32 16,6 C 12,1 C 0,0 UV-I 0,0 C 65 % 87 % 0 % 1010,6 hPa 0,0 l/m 4,8 km/h (1 Bft) 0 min 7,0 km/h (2 Bft)
22.11.2009 09:34 16,6 C 12,1 C 0,0 UV-I 0,0 C 65 % 87 % 0 % 1010,8 hPa 0,0 l/m 4,6 km/h (1 Bft) 0 min 8,2 km/h (2 Bft)
22.11.2009 09:38 16,6 C 12,0 C 0,0 UV-I 0,0 C 65 % 86 % 0 % 1010,8 hPa 0,0 l/m 5,5 km/h (1 Bft) 0 min 19,7 km/h (3 Bft)
22.11.2009 09:40 16,6 C 12,0 C 0,0 UV-I 0,0 C 65 % 86 % 0 % 1010,8 hPa 0,0 l/m 5,8 km/h (2 Bft) 0 min 8,7 km/h (2 Bft)
22.11.2009 09:42 16,6 C 12,1 C 0,0 UV-I 0,0 C 65 % 86 % 0 % 1010,8 hPa 0,0 l/m 6,3 km/h (2 Bft) 0 min 9,1 km/h (2 Bft)
22.11.2009 09:44 16,6 C 12,1 C 0,0 UV-I 0,0 C 65 % 85 % 0 % 1010,8 hPa 0,0 l/m 6,5 km/h (2 Bft) 0 min 7,5 km/h (2 Bft)
22.11.2009 09:46 16,6 C 12,0 C 0,0 UV-I 0,0 C 65 % 85 % 0 % 1010,8 hPa 0,0 l/m 6,7 km/h (2 Bft) 0 min 9,1 km/h (2 Bft)
22.11.2009 09:48 16,6 C 12,1 C 0,0 UV-I 0,0 C 64 % 85 % 0 % 1010,8 hPa 0,0 l/m 6,5 km/h (2 Bft) 0 min 12,0 km/h (2 Bft)
22.11.2009 09:50 16,6 C 12,1 C 0,1 UV-I 0,0 C 64 % 85 % 0 % 1010,8 hPa 0,0 l/m 6,3 km/h (2 Bft) 0 min 7,2 km/h (2 Bft)
22.11.2009 09:52 16,6 C 12,1 C 0,1 UV-I 0,0 C 64 % 84 % 0 % 1010,8 hPa 0,0 l/m 6,0 km/h (2 Bft) 0 min 11,1 km/h (2 Bft)
22.11.2009 09:54 16,6 C 12,3 C 0,1 UV-I 0,0 C 64 % 84 % 0 % 1010,9 hPa 0,0 l/m 6,5 km/h (2 Bft) 0 min 16,4 km/h (3 Bft)
22.11.2009 09:56 16,6 C 12,1 C 0,0 UV-I 0,0 C 64 % 84 % 0 % 1010,9 hPa 0,0 l/m 7,0 km/h (2 Bft) 0 min 16,1 km/h (3 Bft)
22.11.2009 09:58 16,6 C 12,1 C 0,0 UV-I 0,0 C 64 % 83 % 0 % 1010,9 hPa 0,0 l/m 7,7 km/h (2 Bft) 0 min 10,6 km/h (2 Bft)
22.11.2009 10:00 16,6 C 12,2 C 0,2 UV-I 0,0 C 64 % 83 % 0 % 1010,9 hPa 0,0 l/m 7,9 km/h (2 Bft) 0 min 14,7 km/h (3 Bft)
22.11.2009 10:02 16,6 C 12,3 C 0,2 UV-I 0,0 C 64 % 83 % 0 % 1010,9 hPa 0,0 l/m 9,4 km/h (2 Bft) 0 min 22,1 km/h (4 Bft)
22.11.2009 10:04 16,5 C 12,3 C 0,2 UV-I 0,0 C 64 % 82 % 0 % 1010,9 hPa 0,0 l/m 9,4 km/h (2 Bft) 0 min 4,1 km/h (1 Bft)
22.11.2009 10:06 16,6 C 12,3 C 0,5 UV-I 0,0 C 64 % 82 % 0 % 1010,9 hPa 0,0 l/m 8,7 km/h (2 Bft) 0 min 15,6 km/h (3 Bft)
22.11.2009 10:08 16,6 C 12,3 C 0,5 UV-I 0,0 C 63 % 82 % 0 % 1010,9 hPa 0,0 l/m 8,4 km/h (2 Bft) 0 min 12,5 km/h (3 Bft)
22.11.2009 10:10 16,5 C 12,3 C 0,7 UV-I 0,0 C 63 % 82 % 0 % 1010,9 hPa 0,0 l/m 8,7 km/h (2 Bft) 0 min 14,2 km/h (3 Bft)
22.11.2009 10:12 16,5 C 12,4 C 0,7 UV-I 0,0 C 63 % 82 % 0 % 1010,9 hPa 0,0 l/m 7,7 km/h (2 Bft) 0 min 6,7 km/h (2 Bft)
22.11.2009 10:14 16,6 C 12,3 C 0,7 UV-I 0,0 C 63 % 82 % 0 % 1011,0 hPa 0,0 l/m 6,5 km/h (2 Bft) 0 min 6,5 km/h (2 Bft)
22.11.2009 10:16 16,6 C 12,4 C 0,8 UV-I 0,0 C 63 % 81 % 0 % 1011,0 hPa 0,0 l/m 7,7 km/h (2 Bft) 0 min 11,3 km/h (2 Bft)
22.11.2009 10:18 16,6 C 12,3 C 0,8 UV-I 0,0 C 63 % 81 % 0 % 1011,0 hPa 0,0 l/m 7,9 km/h (2 Bft) 0 min 5,1 km/h (1 Bft)
22.11.2009 10:20 16,6 C 12,4 C 0,9 UV-I 0,0 C 63 % 81 % 0 % 1011,0 hPa 0,0 l/m 7,5 km/h (2 Bft) 0 min 9,9 km/h (2 Bft)
22.11.2009 10:22 16,6 C 12,4 C 0,9 UV-I 0,0 C 63 % 81 % 0 % 1011,0 hPa 0,0 l/m 7,7 km/h (2 Bft) 0 min 10,1 km/h (2 Bft)
22.11.2009 10:24 16,5 C 12,5 C 0,9 UV-I 0,0 C 63 % 81 % 0 % 1011,0 hPa 0,0 l/m 8,4 km/h (2 Bft) 0 min 14,9 km/h (3 Bft)
22.11.2009 10:26 16,6 C 12,4 C 1,0 UV-I 0,2 C 63 % 81 % 6 % 1011,0 hPa 0,0 l/m 7,9 km/h (2 Bft) 0 min 7,5 km/h (2 Bft)
22.11.2009 10:28 16,6 C 12,4 C 1,0 UV-I 0,7 C 62 % 81 % 20 % 1011,0 hPa 0,0 l/m 7,9 km/h (2 Bft) 0 min 14,2 km/h (3 Bft)
22.11.2009 10:30 16,6 C 12,5 C 0,8 UV-I 0,8 C 62 % 80 % 23 % 1011,0 hPa 0,0 l/m 8,4 km/h (2 Bft) 0 min 10,6 km/h (2 Bft)
22.11.2009 10:32 16,6 C 12,6 C 0,8 UV-I 0,7 C 62 % 80 % 20 % 1011,0 hPa 0,0 l/m 9,1 km/h (2 Bft) 0 min 19,2 km/h (3 Bft)
22.11.2009 10:34 16,6 C 12,7 C 0,8 UV-I 0,6 C 62 % 80 % 17 % 1011,3 hPa 0,0 l/m 8,9 km/h (2 Bft) 0 min 9,1 km/h (2 Bft)
22.11.2009 10:36 16,6 C 12,6 C 0,8 UV-I 0,6 C 62 % 79 % 17 % 1011,3 hPa 0,0 l/m 9,9 km/h (2 Bft) 0 min 14,2 km/h (3 Bft)
22.11.2009 10:38 16,5 C 12,7 C 0,8 UV-I 0,5 C 62 % 79 % 14 % 1011,3 hPa 0,0 l/m 10,8 km/h (2 Bft) 0 min 14,2 km/h (3 Bft)
22.11.2009 10:40 16,6 C 12,7 C 0,9 UV-I 0,6 C 62 % 79 % 17 % 1011,3 hPa 0,0 l/m 10,6 km/h (2 Bft) 0 min 12,3 km/h (3 Bft)
22.11.2009 10:42 16,5 C 12,8 C 0,9 UV-I 0,8 C 62 % 80 % 23 % 1011,3 hPa 0,0 l/m 9,9 km/h (2 Bft) 0 min 2,6 km/h (1 Bft)
22.11.2009 10:44 16,5 C 12,8 C 0,9 UV-I 0,9 C 62 % 80 % 26 % 1011,3 hPa 0,0 l/m 9,4 km/h (2 Bft) 0 min 9,6 km/h (2 Bft)
22.11.2009 10:46 16,5 C 12,8 C 0,8 UV-I 0,9 C 62 % 79 % 26 % 1011,3 hPa 0,0 l/m 9,6 km/h (2 Bft) 0 min 16,6 km/h (3 Bft)
22.11.2009 10:48 16,5 C 12,8 C 0,8 UV-I 0,9 C 62 % 78 % 26 % 1011,3 hPa 0,0 l/m 9,6 km/h (2 Bft) 0 min 10,8 km/h (2 Bft)
22.11.2009 10:50 16,6 C 12,8 C 0,8 UV-I 0,9 C 62 % 78 % 26 % 1011,3 hPa 0,0 l/m 9,1 km/h (2 Bft) 0 min 12,5 km/h (3 Bft)
22.11.2009 10:52 16,6 C 12,8 C 0,8 UV-I 1,1 C 62 % 78 % 31 % 1011,3 hPa 0,0 l/m 10,1 km/h (2 Bft) 0 min 29,4 km/h (5 Bft)
22.11.2009 10:54 16,6 C 12,9 C 0,8 UV-I 1,6 C 62 % 78 % 46 % 1011,3 hPa 0,0 l/m 10,1 km/h (2 Bft) 0 min 9,9 km/h (2 Bft)
22.11.2009 10:56 16,6 C 13,0 C 1,5 UV-I 1,7 C 62 % 78 % 49 % 1011,3 hPa 0,0 l/m 10,6 km/h (2 Bft) 0 min 9,9 km/h (2 Bft)
22.11.2009 10:58 16,6 C 13,1 C 1,5 UV-I 1,9 C 62 % 77 % 54 % 1011,3 hPa 0,0 l/m 10,3 km/h (2 Bft) 0 min 7,7 km/h (2 Bft)
22.11.2009 11:00 16,6 C 13,1 C 1,5 UV-I 2,0 C 62 % 77 % 57 % 1011,3 hPa 0,0 l/m 10,3 km/h (2 Bft) 0 min 7,5 km/h (2 Bft)
22.11.2009 11:02 16,6 C 13,2 C 1,5 UV-I 2,1 C 62 % 77 % 60 % 1011,3 hPa 0,0 l/m 10,6 km/h (2 Bft) 0 min 18,8 km/h (3 Bft)
22.11.2009 11:04 16,6 C 13,2 C 1,5 UV-I 2,2 C 62 % 76 % 63 % 1011,3 hPa 0,0 l/m 11,8 km/h (2 Bft) 0 min 25,7 km/h (4 Bft)
22.11.2009 11:06 16,6 C 13,2 C 1,2 UV-I 2,2 C 62 % 76 % 63 % 1011,3 hPa 0,0 l/m 11,1 km/h (2 Bft) 0 min 11,1 km/h (2 Bft)
22.11.2009 11:10 16,6 C 13,3 C 0,4 UV-I 1,4 C 62 % 76 % 40 % 1011,3 hPa 0,0 l/m 10,6 km/h (2 Bft) 0 min 12,0 km/h (2 Bft)
22.11.2009 11:12 16,6 C 13,2 C 0,4 UV-I 1,0 C 61 % 75 % 29 % 1011,3 hPa 0,0 l/m 10,6 km/h (2 Bft) 0 min 14,0 km/h (3 Bft)
22.11.2009 11:14 16,6 C 13,2 C 0,4 UV-I 0,7 C 61 % 75 % 20 % 1011,6 hPa 0,0 l/m 10,6 km/h (2 Bft) 0 min 18,3 km/h (3 Bft)
22.11.2009 11:16 16,6 C 13,3 C 0,7 UV-I 0,5 C 61 % 75 % 14 % 1011,6 hPa 0,0 l/m 10,6 km/h (2 Bft) 0 min 19,5 km/h (3 Bft)
22.11.2009 11:18 16,6 C 13,3 C 0,7 UV-I 0,3 C 61 % 74 % 9 % 1011,6 hPa 0,0 l/m 11,5 km/h (2 Bft) 0 min 16,8 km/h (3 Bft)
22.11.2009 11:20 16,6 C 13,3 C 0,6 UV-I 0,1 C 61 % 75 % 3 % 1011,6 hPa 0,0 l/m 11,8 km/h (2 Bft) 0 min 15,2 km/h (3 Bft)
22.11.2009 11:22 16,6 C 13,2 C 0,6 UV-I 0,0 C 61 % 74 % 0 % 1011,6 hPa 0,0 l/m 12,8 km/h (3 Bft) 0 min 35,1 km/h (5 Bft)
22.11.2009 11:24 16,6 C 13,2 C 0,6 UV-I 0,0 C 61 % 74 % 0 % 1011,6 hPa 0,0 l/m 13,0 km/h (3 Bft) 0 min 16,4 km/h (3 Bft)
22.11.2009 11:26 16,6 C 13,3 C 1,3 UV-I 0,0 C 61 % 74 % 0 % 1011,6 hPa 0,0 l/m 12,8 km/h (3 Bft) 0 min 8,7 km/h (2 Bft)
22.11.2009 11:28 16,6 C 13,4 C 1,3 UV-I 0,3 C 60 % 74 % 9 % 1011,6 hPa 0,0 l/m 11,5 km/h (2 Bft) 0 min 29,8 km/h (5 Bft)
22.11.2009 11:30 16,5 C 13,4 C 1,5 UV-I 0,8 C 60 % 73 % 23 % 1011,6 hPa 0,0 l/m 12,3 km/h (3 Bft) 0 min 19,0 km/h (3 Bft)
22.11.2009 11:32 16,6 C 13,5 C 1,5 UV-I 0,7 C 60 % 73 % 20 % 1011,6 hPa 0,0 l/m 12,8 km/h (3 Bft) 0 min 26,5 km/h (4 Bft)
22.11.2009 11:34 16,6 C 13,5 C 1,5 UV-I 0,7 C 60 % 73 % 20 % 1011,1 hPa 0,0 l/m 12,8 km/h (3 Bft) 0 min 12,3 km/h (3 Bft)
22.11.2009 11:36 16,6 C 13,3 C 1,4 UV-I 0,9 C 60 % 72 % 26 % 1011,1 hPa 0,0 l/m 12,5 km/h (3 Bft) 0 min 13,7 km/h (3 Bft)
22.11.2009 11:38 16,6 C 13,5 C 1,4 UV-I 0,7 C 60 % 73 % 20 % 1011,1 hPa 0,0 l/m 13,0 km/h (3 Bft) 0 min 14,0 km/h (3 Bft)
22.11.2009 11:40 16,6 C 13,5 C 1,5 UV-I 1,3 C 60 % 73 % 37 % 1011,1 hPa 0,0 l/m 12,5 km/h (3 Bft) 0 min 18,8 km/h (3 Bft)
22.11.2009 11:42 16,5 C 13,5 C 1,5 UV-I 1,3 C 60 % 72 % 37 % 1011,1 hPa 0,0 l/m 12,3 km/h (3 Bft) 0 min 24,1 km/h (4 Bft)
22.11.2009 11:44 16,5 C 13,5 C 1,5 UV-I 1,1 C 60 % 72 % 31 % 1011,1 hPa 0,0 l/m 11,5 km/h (2 Bft) 0 min 18,8 km/h (3 Bft)
22.11.2009 11:46 16,5 C 13,4 C 1,0 UV-I 1,1 C 60 % 73 % 31 % 1011,1 hPa 0,0 l/m 10,8 km/h (2 Bft) 0 min 12,3 km/h (3 Bft)
22.11.2009 11:48 16,5 C 13,5 C 1,0 UV-I 0,9 C 60 % 72 % 26 % 1011,1 hPa 0,0 l/m 11,3 km/h (2 Bft) 0 min 25,0 km/h (4 Bft)
22.11.2009 11:54 16,5 C 13,5 C 1,1 UV-I 0,0 C 59 % 70 % 0 % 1011,4 hPa 0,0 l/m 13,0 km/h (3 Bft) 0 min 25,5 km/h (4 Bft)
22.11.2009 11:56 16,5 C 13,5 C 1,1 UV-I 0,0 C 59 % 69 % 0 % 1011,4 hPa 0,0 l/m 13,2 km/h (3 Bft) 0 min 16,8 km/h (3 Bft)
22.11.2009 11:58 16,5 C 13,5 C 1,1 UV-I 0,0 C 59 % 70 % 0 % 1011,4 hPa 0,0 l/m 14,0 km/h (3 Bft) 0 min 16,4 km/h (3 Bft)
22.11.2009 12:00 16,5 C 13,5 C 1,1 UV-I 0,0 C 59 % 69 % 0 % 1011,4 hPa 0,0 l/m 14,0 km/h (3 Bft) 0 min 21,9 km/h (4 Bft)
22.11.2009 12:02 16,5 C 13,5 C 1,1 UV-I 0,0 C 58 % 70 % 0 % 1011,4 hPa 0,0 l/m 13,5 km/h (3 Bft) 0 min 8,7 km/h (2 Bft)
22.11.2009 12:06 16,5 C 13,7 C 1,1 UV-I 0,7 C 58 % 70 % 20 % 1011,4 hPa 0,0 l/m 11,8 km/h (2 Bft) 0 min 14,9 km/h (3 Bft)
22.11.2009 12:10 16,5 C 13,9 C 1,5 UV-I 2,7 C 58 % 70 % 77 % 1011,4 hPa 0,0 l/m 10,3 km/h (2 Bft) 0 min 18,8 km/h (3 Bft)
22.11.2009 12:12 16,5 C 13,9 C 1,5 UV-I 3,4 C 59 % 71 % 97 % 1011,4 hPa 0,0 l/m 8,4 km/h (2 Bft) 2 min 7,7 km/h (2 Bft)
22.11.2009 12:14 16,5 C 14,0 C 1,5 UV-I 3,9 C 59 % 70 % 100 % 1010,6 hPa 0,0 l/m 8,7 km/h (2 Bft) 2 min 15,6 km/h (3 Bft)
22.11.2009 12:16 16,5 C 14,0 C 1,6 UV-I 3,7 C 59 % 69 % 100 % 1010,6 hPa 0,0 l/m 8,7 km/h (2 Bft) 2 min 12,5 km/h (3 Bft)
22.11.2009 12:18 16,5 C 14,1 C 1,6 UV-I 3,8 C 58 % 68 % 100 % 1010,6 hPa 0,0 l/m 8,4 km/h (2 Bft) 2 min 10,6 km/h (2 Bft)
22.11.2009 12:20 16,5 C 14,1 C 1,6 UV-I 3,8 C 58 % 67 % 100 % 1010,6 hPa 0,0 l/m 8,7 km/h (2 Bft) 2 min 11,5 km/h (2 Bft)
22.11.2009 12:22 16,5 C 14,1 C 1,6 UV-I 3,6 C 58 % 68 % 100 % 1010,6 hPa 0,0 l/m 9,1 km/h (2 Bft) 2 min 4,8 km/h (1 Bft)
22.11.2009 12:24 16,6 C 14,1 C 1,6 UV-I 4,0 C 58 % 67 % 100 % 1010,6 hPa 0,0 l/m 9,4 km/h (2 Bft) 2 min 23,6 km/h (4 Bft)
22.11.2009 12:26 16,6 C 14,1 C 1,6 UV-I 4,2 C 58 % 67 % 100 % 1010,6 hPa 0,0 l/m 9,1 km/h (2 Bft) 2 min 13,7 km/h (3 Bft)
22.11.2009 12:28 16,6 C 14,3 C 1,6 UV-I 4,1 C 58 % 67 % 100 % 1010,6 hPa 0,0 l/m 8,9 km/h (2 Bft) 2 min 14,9 km/h (3 Bft)
22.11.2009 12:30 16,6 C 14,3 C 1,4 UV-I 3,8 C 58 % 65 % 100 % 1010,6 hPa 0,0 l/m 8,9 km/h (2 Bft) 2 min 19,5 km/h (3 Bft)
22.11.2009 12:32 16,6 C 14,1 C 1,4 UV-I 3,9 C 58 % 65 % 100 % 1010,6 hPa 0,0 l/m 9,1 km/h (2 Bft) 2 min 9,1 km/h (2 Bft)
22.11.2009 12:34 16,6 C 14,1 C 1,4 UV-I 3,4 C 57 % 66 % 97 % 1010,6 hPa 0,0 l/m 10,1 km/h (2 Bft) 2 min 13,5 km/h (3 Bft)
22.11.2009 12:36 16,6 C 14,1 C 1,5 UV-I 3,2 C 57 % 66 % 91 % 1010,6 hPa 0,0 l/m 9,1 km/h (2 Bft) 2 min 8,2 km/h (2 Bft)
22.11.2009 12:38 16,6 C 14,1 C 1,5 UV-I 3,0 C 57 % 66 % 86 % 1010,6 hPa 0,0 l/m 9,4 km/h (2 Bft) 2 min 17,6 km/h (3 Bft)
22.11.2009 12:40 16,6 C 14,1 C 1,4 UV-I 2,7 C 57 % 66 % 77 % 1010,6 hPa 0,0 l/m 8,7 km/h (2 Bft) 0 min 12,0 km/h (2 Bft)
22.11.2009 12:42 16,6 C 14,1 C 1,4 UV-I 2,2 C 57 % 65 % 63 % 1010,6 hPa 0,0 l/m 8,7 km/h (2 Bft) 0 min 20,5 km/h (4 Bft)
22.11.2009 12:44 16,6 C 14,1 C 1,4 UV-I 1,9 C 57 % 65 % 54 % 1010,6 hPa 0,0 l/m 9,1 km/h (2 Bft) 0 min 17,6 km/h (3 Bft)
22.11.2009 12:46 16,6 C 14,1 C 1,4 UV-I 2,0 C 57 % 64 % 57 % 1010,6 hPa 0,0 l/m 10,3 km/h (2 Bft) 0 min 10,1 km/h (2 Bft)
22.11.2009 12:48 16,6 C 14,0 C 1,4 UV-I 2,1 C 57 % 64 % 60 % 1010,6 hPa 0,0 l/m 10,8 km/h (2 Bft) 0 min 30,6 km/h (5 Bft)
22.11.2009 12:50 16,6 C 14,0 C 1,3 UV-I 2,0 C 57 % 65 % 57 % 1010,6 hPa 0,0 l/m 11,3 km/h (2 Bft) 0 min 15,9 km/h (3 Bft)
22.11.2009 12:52 16,6 C 14,0 C 1,3 UV-I 2,0 C 57 % 65 % 57 % 1010,6 hPa 0,0 l/m 11,3 km/h (2 Bft) 0 min 16,1 km/h (3 Bft)
22.11.2009 12:54 16,7 C 14,1 C 1,3 UV-I 2,0 C 57 % 65 % 57 % 1010,2 hPa 0,0 l/m 10,6 km/h (2 Bft) 0 min 14,0 km/h (3 Bft)
22.11.2009 12:56 16,6 C 14,1 C 1,5 UV-I 2,2 C 57 % 65 % 63 % 1010,2 hPa 0,0 l/m 10,1 km/h (2 Bft) 0 min 11,8 km/h (2 Bft)
22.11.2009 13:00 16,7 C 14,0 C 1,4 UV-I 2,0 C 57 % 65 % 57 % 1010,2 hPa 0,0 l/m 9,1 km/h (2 Bft) 0 min 17,1 km/h (3 Bft)
22.11.2009 13:04 16,7 C 14,0 C 1,4 UV-I 1,8 C 56 % 65 % 51 % 1010,2 hPa 0,0 l/m 10,1 km/h (2 Bft) 0 min 23,6 km/h (4 Bft)
22.11.2009 13:09 16,8 C 14,3 C 1,6 UV-I 2,4 C 56 % 65 % 69 % 1010,2 hPa 0,0 l/m 10,3 km/h (2 Bft) 0 min 17,3 km/h (3 Bft)
22.11.2009 13:14 16,8 C 14,3 C 1,6 UV-I 2,9 C 56 % 64 % 83 % 1010,5 hPa 0,0 l/m 10,1 km/h (2 Bft) 2 min 11,5 km/h (2 Bft)
22.11.2009 13:16 16,8 C 14,3 C 1,7 UV-I 3,0 C 56 % 65 % 86 % 1010,5 hPa 0,0 l/m 9,6 km/h (2 Bft) 2 min 16,6 km/h (3 Bft)
22.11.2009 13:18 16,8 C 14,4 C 1,7 UV-I 3,0 C 56 % 64 % 86 % 1010,5 hPa 0,0 l/m 10,3 km/h (2 Bft) 2 min 16,8 km/h (3 Bft)
22.11.2009 13:20 16,8 C 14,3 C 1,6 UV-I 3,1 C 56 % 64 % 89 % 1010,5 hPa 0,0 l/m 10,1 km/h (2 Bft) 2 min 5,8 km/h (2 Bft)
22.11.2009 13:22 16,8 C 14,3 C 1,6 UV-I 2,8 C 56 % 64 % 80 % 1010,5 hPa 0,0 l/m 9,9 km/h (2 Bft) 2 min 7,2 km/h (2 Bft)
22.11.2009 13:24 16,9 C 14,4 C 1,6 UV-I 2,5 C 56 % 65 % 71 % 1010,5 hPa 0,0 l/m 8,2 km/h (2 Bft) 0 min 12,8 km/h (3 Bft)
22.11.2009 13:26 16,9 C 14,3 C 1,3 UV-I 2,3 C 56 % 64 % 66 % 1010,5 hPa 0,0 l/m 7,9 km/h (2 Bft) 0 min 9,6 km/h (2 Bft)
22.11.2009 13:28 16,9 C 14,4 C 1,3 UV-I 1,7 C 56 % 64 % 49 % 1010,5 hPa 0,0 l/m 8,7 km/h (2 Bft) 0 min 18,5 km/h (3 Bft)
22.11.2009 13:30 16,9 C 14,3 C 1,0 UV-I 1,8 C 56 % 64 % 51 % 1010,5 hPa 0,0 l/m 8,2 km/h (2 Bft) 0 min 10,3 km/h (2 Bft)
22.11.2009 13:32 16,9 C 14,4 C 1,0 UV-I 2,1 C 56 % 64 % 60 % 1010,5 hPa 0,0 l/m 8,4 km/h (2 Bft) 0 min 15,2 km/h (3 Bft)
22.11.2009 13:34 17,0 C 14,4 C 1,0 UV-I 2,2 C 56 % 64 % 63 % 1010,1 hPa 0,0 l/m 9,4 km/h (2 Bft) 0 min 20,5 km/h (4 Bft)
22.11.2009 13:36 17,0 C 14,5 C 1,6 UV-I 2,4 C 55 % 64 % 69 % 1010,1 hPa 0,0 l/m 9,6 km/h (2 Bft) 0 min 7,7 km/h (2 Bft)
22.11.2009 13:38 17,0 C 14,6 C 1,6 UV-I 2,6 C 55 % 63 % 74 % 1010,1 hPa 0,0 l/m 9,6 km/h (2 Bft) 2 min 8,2 km/h (2 Bft)
22.11.2009 13:40 17,1 C 14,7 C 1,5 UV-I 2,7 C 55 % 63 % 77 % 1010,1 hPa 0,0 l/m 9,6 km/h (2 Bft) 2 min 17,6 km/h (3 Bft)
22.11.2009 13:42 17,1 C 14,7 C 1,5 UV-I 2,6 C 55 % 63 % 74 % 1010,1 hPa 0,0 l/m 10,8 km/h (2 Bft) 2 min 15,9 km/h (3 Bft)
22.11.2009 13:44 17,1 C 14,7 C 1,5 UV-I 2,6 C 55 % 64 % 74 % 1010,1 hPa 0,0 l/m 10,1 km/h (2 Bft) 2 min 4,3 km/h (1 Bft)
22.11.2009 13:46 17,2 C 14,7 C 1,3 UV-I 2,9 C 55 % 63 % 83 % 1010,1 hPa 0,0 l/m 10,6 km/h (2 Bft) 2 min 12,3 km/h (3 Bft)
22.11.2009 13:48 17,2 C 14,6 C 1,3 UV-I 3,2 C 55 % 62 % 91 % 1010,1 hPa 0,0 l/m 11,3 km/h (2 Bft) 2 min 20,0 km/h (4 Bft)
22.11.2009 13:50 17,2 C 14,6 C 0,8 UV-I 3,2 C 55 % 63 % 91 % 1010,1 hPa 0,0 l/m 11,5 km/h (2 Bft) 2 min 14,7 km/h (3 Bft)
22.11.2009 13:52 17,2 C 14,7 C 0,8 UV-I 3,2 C 55 % 62 % 91 % 1010,1 hPa 0,0 l/m 10,6 km/h (2 Bft) 2 min 15,6 km/h (3 Bft)
22.11.2009 13:54 17,3 C 14,6 C 0,8 UV-I 3,4 C 55 % 62 % 97 % 1010,4 hPa 0,0 l/m 10,3 km/h (2 Bft) 2 min 8,9 km/h (2 Bft)
22.11.2009 13:56 17,2 C 14,7 C 1,0 UV-I 3,2 C 54 % 62 % 91 % 1010,4 hPa 0,0 l/m 11,3 km/h (2 Bft) 2 min 25,7 km/h (4 Bft)
22.11.2009 13:58 17,4 C 14,7 C 1,0 UV-I 3,1 C 54 % 62 % 89 % 1010,4 hPa 0,0 l/m 10,8 km/h (2 Bft) 2 min 11,5 km/h (2 Bft)
22.11.2009 14:00 17,4 C 14,7 C 0,8 UV-I 2,9 C 54 % 62 % 83 % 1010,4 hPa 0,0 l/m 10,1 km/h (2 Bft) 2 min 11,1 km/h (2 Bft)
22.11.2009 14:02 17,4 C 14,7 C 0,8 UV-I 2,7 C 54 % 63 % 77 % 1010,4 hPa 0,0 l/m 9,4 km/h (2 Bft) 2 min 9,9 km/h (2 Bft)
22.11.2009 14:04 17,4 C 14,8 C 0,8 UV-I 2,7 C 54 % 62 % 77 % 1010,4 hPa 0,0 l/m 8,4 km/h (2 Bft) 2 min 12,8 km/h (3 Bft)
22.11.2009 14:06 17,5 C 14,8 C 0,8 UV-I 2,7 C 54 % 62 % 77 % 1010,4 hPa 0,0 l/m 9,1 km/h (2 Bft) 2 min 6,0 km/h (2 Bft)
22.11.2009 14:08 17,5 C 14,8 C 0,8 UV-I 2,3 C 54 % 61 % 66 % 1010,4 hPa 0,0 l/m 8,2 km/h (2 Bft) 2 min 8,2 km/h (2 Bft)
22.11.2009 14:10 17,5 C 14,8 C 0,8 UV-I 2,3 C 54 % 62 % 66 % 1010,4 hPa 0,0 l/m 7,7 km/h (2 Bft) 2 min 6,0 km/h (2 Bft)
22.11.2009 14:12 17,6 C 14,7 C 0,8 UV-I 2,2 C 54 % 61 % 63 % 1010,4 hPa 0,0 l/m 8,2 km/h (2 Bft) 2 min 15,2 km/h (3 Bft)
22.11.2009 14:14 17,6 C 14,7 C 0,8 UV-I 2,0 C 54 % 61 % 57 % 1011,2 hPa 0,0 l/m 8,4 km/h (2 Bft) 0 min 15,6 km/h (3 Bft)
22.11.2009 14:16 17,6 C 14,7 C 0,9 UV-I 2,0 C 53 % 61 % 57 % 1011,2 hPa 0,0 l/m 7,7 km/h (2 Bft) 0 min 9,1 km/h (2 Bft)
22.11.2009 14:18 17,6 C 14,8 C 0,9 UV-I 2,2 C 53 % 60 % 63 % 1011,2 hPa 0,0 l/m 7,9 km/h (2 Bft) 2 min 11,1 km/h (2 Bft)
22.11.2009 14:20 17,6 C 14,7 C 0,8 UV-I 2,6 C 53 % 61 % 74 % 1011,2 hPa 0,0 l/m 7,7 km/h (2 Bft) 2 min 3,4 km/h (1 Bft)
22.11.2009 14:22 17,7 C 14,8 C 0,8 UV-I 2,7 C 53 % 61 % 77 % 1011,2 hPa 0,0 l/m 7,7 km/h (2 Bft) 2 min 12,5 km/h (3 Bft)
22.11.2009 14:24 17,7 C 14,9 C 0,8 UV-I 2,9 C 53 % 60 % 83 % 1011,2 hPa 0,0 l/m 7,9 km/h (2 Bft) 2 min 27,7 km/h (4 Bft)
22.11.2009 14:26 17,7 C 14,9 C 0,9 UV-I 2,7 C 53 % 59 % 77 % 1011,2 hPa 0,0 l/m 8,9 km/h (2 Bft) 2 min 13,0 km/h (3 Bft)
22.11.2009 14:28 17,7 C 14,8 C 0,9 UV-I 2,8 C 53 % 60 % 80 % 1011,2 hPa 0,0 l/m 8,9 km/h (2 Bft) 2 min 14,7 km/h (3 Bft)
22.11.2009 14:30 17,7 C 14,9 C 0,9 UV-I 2,8 C 53 % 60 % 80 % 1011,2 hPa 0,0 l/m 8,2 km/h (2 Bft) 2 min 12,5 km/h (3 Bft)
22.11.2009 14:32 17,7 C 14,9 C 0,9 UV-I 2,8 C 53 % 59 % 80 % 1011,2 hPa 0,0 l/m 8,7 km/h (2 Bft) 2 min 9,1 km/h (2 Bft)
22.11.2009 14:34 17,7 C 14,9 C 0,9 UV-I 2,9 C 53 % 59 % 83 % 1010,6 hPa 0,0 l/m 8,7 km/h (2 Bft) 2 min 12,0 km/h (2 Bft)
22.11.2009 14:36 17,7 C 14,9 C 0,8 UV-I 2,9 C 52 % 59 % 83 % 1010,6 hPa 0,0 l/m 8,4 km/h (2 Bft) 2 min 12,8 km/h (3 Bft)
22.11.2009 14:38 17,7 C 14,9 C 0,8 UV-I 2,9 C 52 % 59 % 83 % 1010,6 hPa 0,0 l/m 7,9 km/h (2 Bft) 2 min 10,6 km/h (2 Bft)
22.11.2009 14:40 17,7 C 14,9 C 0,6 UV-I 2,8 C 52 % 59 % 80 % 1010,6 hPa 0,0 l/m 7,9 km/h (2 Bft) 2 min 7,9 km/h (2 Bft)
22.11.2009 14:42 17,7 C 14,9 C 0,6 UV-I 2,7 C 52 % 59 % 77 % 1010,6 hPa 0,0 l/m 8,7 km/h (2 Bft) 2 min 14,0 km/h (3 Bft)
22.11.2009 14:44 17,7 C 14,8 C 0,6 UV-I 2,7 C 52 % 58 % 77 % 1010,6 hPa 0,0 l/m 9,4 km/h (2 Bft) 2 min 19,2 km/h (3 Bft)
22.11.2009 14:46 17,7 C 14,8 C 0,5 UV-I 2,6 C 52 % 59 % 74 % 1010,6 hPa 0,0 l/m 9,1 km/h (2 Bft) 2 min 13,5 km/h (3 Bft)
22.11.2009 14:48 17,7 C 14,8 C 0,5 UV-I 2,5 C 52 % 59 % 71 % 1010,6 hPa 0,0 l/m 8,7 km/h (2 Bft) 2 min 14,9 km/h (3 Bft)
22.11.2009 14:50 17,7 C 14,9 C 0,5 UV-I 2,4 C 52 % 59 % 69 % 1010,6 hPa 0,0 l/m 8,2 km/h (2 Bft) 2 min 5,8 km/h (2 Bft)
22.11.2009 14:52 17,7 C 14,9 C 0,5 UV-I 2,3 C 52 % 59 % 66 % 1010,6 hPa 0,0 l/m 8,2 km/h (2 Bft) 2 min 9,1 km/h (2 Bft)
22.11.2009 14:54 17,7 C 14,8 C 0,5 UV-I 2,4 C 52 % 60 % 69 % 1009,3 hPa 0,0 l/m 7,0 km/h (2 Bft) 2 min 8,7 km/h (2 Bft)
22.11.2009 14:56 17,7 C 14,8 C 0,5 UV-I 2,5 C 52 % 60 % 71 % 1009,3 hPa 0,0 l/m 6,0 km/h (2 Bft) 2 min 10,8 km/h (2 Bft)
22.11.2009 14:58 17,7 C 14,7 C 0,5 UV-I 2,5 C 52 % 60 % 71 % 1009,3 hPa 0,0 l/m 6,3 km/h (2 Bft) 2 min 9,9 km/h (2 Bft)
22.11.2009 15:00 17,6 C 14,6 C 0,4 UV-I 2,4 C 52 % 60 % 69 % 1009,3 hPa 0,0 l/m 6,3 km/h (2 Bft) 2 min 3,1 km/h (1 Bft)
22.11.2009 15:02 17,6 C 14,7 C 0,4 UV-I 2,0 C 52 % 59 % 57 % 1009,3 hPa 0,0 l/m 6,7 km/h (2 Bft) 2 min 14,9 km/h (3 Bft)
22.11.2009 15:04 17,6 C 14,5 C 0,4 UV-I 1,7 C 52 % 59 % 49 % 1009,3 hPa 0,0 l/m 8,4 km/h (2 Bft) 2 min 15,4 km/h (3 Bft)
22.11.2009 15:06 17,6 C 14,5 C 0,3 UV-I 1,4 C 52 % 59 % 40 % 1009,3 hPa 0,0 l/m 8,4 km/h (2 Bft) 0 min 6,7 km/h (2 Bft)
22.11.2009 15:08 17,6 C 14,4 C 0,3 UV-I 1,1 C 52 % 60 % 31 % 1009,3 hPa 0,0 l/m 9,4 km/h (2 Bft) 0 min 44,7 km/h (6 Bft)
22.11.2009 15:10 17,6 C 14,5 C 0,4 UV-I 0,6 C 52 % 60 % 17 % 1009,3 hPa 0,0 l/m 9,4 km/h (2 Bft) 0 min 8,9 km/h (2 Bft)
22.11.2009 15:12 17,6 C 14,4 C 0,4 UV-I 0,5 C 52 % 60 % 14 % 1009,3 hPa 0,0 l/m 9,4 km/h (2 Bft) 0 min 44,7 km/h (6 Bft)
22.11.2009 15:14 17,6 C 14,4 C 0,4 UV-I 0,5 C 52 % 60 % 14 % 1008,9 hPa 0,0 l/m 8,4 km/h (2 Bft) 0 min 21,2 km/h (4 Bft)
22.11.2009 15:16 17,6 C 14,3 C 0,1 UV-I 0,6 C 52 % 60 % 17 % 1008,9 hPa 0,0 l/m 8,4 km/h (2 Bft) 0 min 12,8 km/h (3 Bft)
22.11.2009 15:18 17,6 C 14,3 C 0,1 UV-I 0,6 C 52 % 60 % 17 % 1008,9 hPa 0,0 l/m 8,7 km/h (2 Bft) 0 min 8,2 km/h (2 Bft)
22.11.2009 15:20 17,6 C 14,2 C 0,2 UV-I 0,4 C 51 % 61 % 11 % 1008,9 hPa 0,0 l/m 7,9 km/h (2 Bft) 0 min 3,4 km/h (1 Bft)
22.11.2009 15:22 17,5 C 14,3 C 0,2 UV-I 0,2 C 52 % 60 % 6 % 1008,9 hPa 0,0 l/m 8,4 km/h (2 Bft) 0 min 17,6 km/h (3 Bft)
22.11.2009 15:24 17,5 C 14,3 C 0,2 UV-I 0,0 C 51 % 60 % 0 % 1008,9 hPa 0,0 l/m 9,1 km/h (2 Bft) 0 min 18,8 km/h (3 Bft)
22.11.2009 15:26 17,5 C 14,2 C 0,1 UV-I 0,0 C 51 % 60 % 0 % 1008,9 hPa 0,0 l/m 8,7 km/h (2 Bft) 0 min 7,5 km/h (2 Bft)
22.11.2009 15:28 17,5 C 14,1 C 0,1 UV-I 0,0 C 51 % 61 % 0 % 1008,9 hPa 0,0 l/m 8,9 km/h (2 Bft) 0 min 15,9 km/h (3 Bft)
22.11.2009 15:30 17,5 C 14,1 C 0,3 UV-I 0,0 C 51 % 61 % 0 % 1008,9 hPa 0,0 l/m 8,4 km/h (2 Bft) 0 min 8,7 km/h (2 Bft)
22.11.2009 15:32 17,4 C 14,0 C 0,3 UV-I 0,0 C 51 % 61 % 0 % 1008,9 hPa 0,0 l/m 7,7 km/h (2 Bft) 0 min 5,8 km/h (2 Bft)
22.11.2009 15:34 17,4 C 14,0 C 0,3 UV-I 0,0 C 51 % 61 % 0 % 1008,7 hPa 0,0 l/m 8,2 km/h (2 Bft) 0 min 31,5 km/h (5 Bft)
22.11.2009 15:36 17,4 C 14,1 C 0,1 UV-I 0,0 C 51 % 62 % 0 % 1008,7 hPa 0,0 l/m 7,7 km/h (2 Bft) 0 min 6,3 km/h (2 Bft)
22.11.2009 15:38 17,4 C 14,1 C 0,1 UV-I 0,0 C 51 % 62 % 0 % 1008,7 hPa 0,0 l/m 7,9 km/h (2 Bft) 0 min 9,1 km/h (2 Bft)
22.11.2009 15:40 17,4 C 14,0 C 0,0 UV-I 0,0 C 51 % 62 % 0 % 1008,7 hPa 0,0 l/m 7,5 km/h (2 Bft) 0 min 17,1 km/h (3 Bft)
22.11.2009 15:42 17,4 C 14,0 C 0,0 UV-I 0,0 C 51 % 62 % 0 % 1008,7 hPa 0,0 l/m 7,7 km/h (2 Bft) 0 min 11,5 km/h (2 Bft)
22.11.2009 15:44 17,4 C 14,0 C 0,0 UV-I 0,0 C 51 % 62 % 0 % 1008,7 hPa 0,0 l/m 8,2 km/h (2 Bft) 0 min 8,4 km/h (2 Bft)
22.11.2009 15:46 17,2 C 13,9 C 0,0 UV-I 0,0 C 51 % 62 % 0 % 1008,7 hPa 0,0 l/m 7,0 km/h (2 Bft) 0 min 11,8 km/h (2 Bft)
22.11.2009 15:48 17,2 C 13,9 C 0,0 UV-I 0,0 C 51 % 62 % 0 % 1008,7 hPa 0,0 l/m 7,5 km/h (2 Bft) 0 min 7,9 km/h (2 Bft)
22.11.2009 15:50 17,2 C 13,8 C 0,0 UV-I 0,0 C 51 % 62 % 0 % 1008,7 hPa 0,0 l/m 7,9 km/h (2 Bft) 0 min 9,1 km/h (2 Bft)
22.11.2009 15:52 17,2 C 13,8 C 0,0 UV-I 0,0 C 51 % 62 % 0 % 1008,7 hPa 0,0 l/m 8,7 km/h (2 Bft) 0 min 7,7 km/h (2 Bft)
22.11.2009 15:54 17,2 C 13,9 C 0,0 UV-I 0,0 C 51 % 62 % 0 % 1008,3 hPa 0,0 l/m 8,4 km/h (2 Bft) 0 min 5,8 km/h (2 Bft)
22.11.2009 15:56 17,2 C 13,8 C 0,0 UV-I 0,0 C 51 % 62 % 0 % 1008,3 hPa 0,0 l/m 8,2 km/h (2 Bft) 0 min 5,1 km/h (1 Bft)
22.11.2009 15:58 17,2 C 13,8 C 0,0 UV-I 0,0 C 51 % 62 % 0 % 1008,3 hPa 0,0 l/m 7,5 km/h (2 Bft) 0 min 10,8 km/h (2 Bft)
22.11.2009 16:00 17,2 C 13,7 C 0,0 UV-I 0,0 C 51 % 62 % 0 % 1008,3 hPa 0,0 l/m 7,7 km/h (2 Bft) 0 min 15,2 km/h (3 Bft)
22.11.2009 16:02 17,2 C 13,7 C 0,0 UV-I 0,0 C 51 % 62 % 0 % 1008,3 hPa 0,0 l/m 7,2 km/h (2 Bft) 0 min 8,9 km/h (2 Bft)
22.11.2009 16:04 17,2 C 13,7 C 0,0 UV-I 0,0 C 51 % 62 % 0 % 1008,3 hPa 0,0 l/m 7,5 km/h (2 Bft) 0 min 19,7 km/h (3 Bft)
22.11.2009 16:06 17,1 C 13,7 C 0,0 UV-I 0,0 C 51 % 62 % 0 % 1008,3 hPa 0,0 l/m 7,9 km/h (2 Bft) 0 min 20,0 km/h (4 Bft)
22.11.2009 16:08 17,1 C 13,7 C 0,0 UV-I 0,0 C 51 % 62 % 0 % 1008,3 hPa 0,0 l/m 8,9 km/h (2 Bft) 0 min 6,7 km/h (2 Bft)
22.11.2009 16:10 17,1 C 13,7 C 0,0 UV-I 0,0 C 51 % 62 % 0 % 1008,3 hPa 0,0 l/m 8,9 km/h (2 Bft) 0 min 10,1 km/h (2 Bft)
22.11.2009 16:12 17,1 C 13,6 C 0,0 UV-I 0,0 C 51 % 62 % 0 % 1008,3 hPa 0,0 l/m 8,4 km/h (2 Bft) 0 min 3,4 km/h (1 Bft)
22.11.2009 16:14 17,1 C 13,6 C 0,0 UV-I 0,0 C 51 % 63 % 0 % 1007,7 hPa 0,0 l/m 8,4 km/h (2 Bft) 0 min 23,6 km/h (4 Bft)
22.11.2009 16:16 17,1 C 13,6 C 0,0 UV-I 0,0 C 51 % 63 % 0 % 1007,7 hPa 0,0 l/m 7,9 km/h (2 Bft) 0 min 7,9 km/h (2 Bft)
22.11.2009 16:18 17,1 C 13,5 C 0,0 UV-I 0,0 C 51 % 62 % 0 % 1007,7 hPa 0,0 l/m 7,0 km/h (2 Bft) 0 min 9,1 km/h (2 Bft)
22.11.2009 16:20 17,1 C 13,5 C 0,0 UV-I 0,0 C 51 % 62 % 0 % 1007,7 hPa 0,0 l/m 7,0 km/h (2 Bft) 0 min 9,9 km/h (2 Bft)
22.11.2009 16:22 17,0 C 13,5 C 0,0 UV-I 0,0 C 51 % 62 % 0 % 1007,7 hPa 0,0 l/m 7,2 km/h (2 Bft) 0 min 9,9 km/h (2 Bft)
22.11.2009 16:24 17,0 C 13,5 C 0,0 UV-I 0,0 C 52 % 62 % 0 % 1007,7 hPa 0,0 l/m 7,2 km/h (2 Bft) 0 min 7,7 km/h (2 Bft)
22.11.2009 16:26 17,0 C 13,4 C 0,0 UV-I 0,0 C 51 % 63 % 0 % 1007,7 hPa 0,0 l/m 6,3 km/h (2 Bft) 0 min 4,6 km/h (1 Bft)
22.11.2009 16:28 17,0 C 13,4 C 0,0 UV-I 0,0 C 51 % 62 % 0 % 1007,7 hPa 0,0 l/m 6,0 km/h (2 Bft) 0 min 10,8 km/h (2 Bft)
22.11.2009 16:30 17,0 C 13,5 C 0,0 UV-I 0,0 C 51 % 63 % 0 % 1007,7 hPa 0,0 l/m 6,3 km/h (2 Bft) 0 min 12,8 km/h (3 Bft)
22.11.2009 16:32 17,0 C 13,4 C 0,0 UV-I 0,0 C 51 % 63 % 0 % 1007,7 hPa 0,0 l/m 6,3 km/h (2 Bft) 0 min 4,6 km/h (1 Bft)
22.11.2009 16:34 17,0 C 13,3 C 0,0 UV-I 0,0 C 51 % 63 % 0 % 1007,3 hPa 0,0 l/m 6,3 km/h (2 Bft) 0 min 16,1 km/h (3 Bft)
22.11.2009 16:36 16,9 C 13,3 C 0,0 UV-I 0,0 C 52 % 63 % 0 % 1007,3 hPa 0,0 l/m 6,0 km/h (2 Bft) 0 min 4,1 km/h (1 Bft)
22.11.2009 16:38 16,9 C 13,3 C 0,0 UV-I 0,0 C 51 % 63 % 0 % 1007,3 hPa 0,0 l/m 6,0 km/h (2 Bft) 0 min 7,9 km/h (2 Bft)
22.11.2009 16:40 16,9 C 13,2 C 0,0 UV-I 0,0 C 52 % 64 % 0 % 1007,3 hPa 0,0 l/m 5,3 km/h (1 Bft) 0 min 7,5 km/h (2 Bft)
22.11.2009 16:42 16,9 C 13,2 C 0,0 UV-I 0,0 C 52 % 63 % 0 % 1007,3 hPa 0,0 l/m 5,1 km/h (1 Bft) 0 min 6,7 km/h (2 Bft)
22.11.2009 16:44 16,9 C 13,2 C 0,0 UV-I 0,0 C 52 % 64 % 0 % 1007,3 hPa 0,0 l/m 6,3 km/h (2 Bft) 0 min 11,3 km/h (2 Bft)
22.11.2009 16:46 16,9 C 13,1 C 0,0 UV-I 0,0 C 52 % 64 % 0 % 1007,3 hPa 0,0 l/m 5,8 km/h (2 Bft) 0 min 5,8 km/h (2 Bft)
22.11.2009 16:48 16,9 C 13,0 C 0,0 UV-I 0,0 C 52 % 64 % 0 % 1007,3 hPa 0,0 l/m 6,0 km/h (2 Bft) 0 min 9,6 km/h (2 Bft)
22.11.2009 16:50 16,9 C 13,1 C 0,0 UV-I 0,0 C 52 % 64 % 0 % 1007,3 hPa 0,0 l/m 6,7 km/h (2 Bft) 0 min 14,7 km/h (3 Bft)
22.11.2009 16:52 16,9 C 13,0 C 0,0 UV-I 0,0 C 52 % 64 % 0 % 1007,3 hPa 0,0 l/m 7,2 km/h (2 Bft) 0 min 6,7 km/h (2 Bft)
22.11.2009 16:54 16,9 C 12,9 C 0,0 UV-I 0,0 C 52 % 64 % 0 % 1006,4 hPa 0,0 l/m 7,5 km/h (2 Bft) 0 min 14,2 km/h (3 Bft)
22.11.2009 16:56 16,9 C 12,9 C 0,0 UV-I 0,0 C 52 % 64 % 0 % 1006,4 hPa 0,0 l/m 7,5 km/h (2 Bft) 0 min 10,3 km/h (2 Bft)
22.11.2009 16:58 16,9 C 12,9 C 0,0 UV-I 0,0 C 52 % 64 % 0 % 1006,4 hPa 0,0 l/m 8,4 km/h (2 Bft) 0 min 9,6 km/h (2 Bft)
22.11.2009 17:00 16,8 C 12,8 C 0,0 UV-I 0,0 C 52 % 64 % 0 % 1006,4 hPa 0,0 l/m 8,7 km/h (2 Bft) 0 min 14,7 km/h (3 Bft)
22.11.2009 17:02 16,8 C 12,8 C 0,0 UV-I 0,0 C 52 % 64 % 0 % 1006,4 hPa 0,0 l/m 8,4 km/h (2 Bft) 0 min 8,9 km/h (2 Bft)
22.11.2009 17:04 16,8 C 12,9 C 0,0 UV-I 0,0 C 52 % 65 % 0 % 1006,4 hPa 0,0 l/m 8,7 km/h (2 Bft) 0 min 11,3 km/h (2 Bft)
22.11.2009 17:06 16,8 C 12,9 C 0,0 UV-I 0,0 C 52 % 64 % 0 % 1006,4 hPa 0,0 l/m 8,9 km/h (2 Bft) 0 min 22,6 km/h (4 Bft)
22.11.2009 17:08 16,8 C 12,9 C 0,0 UV-I 0,0 C 52 % 64 % 0 % 1006,4 hPa 0,0 l/m 8,7 km/h (2 Bft) 0 min 10,1 km/h (2 Bft)
22.11.2009 17:10 16,8 C 12,8 C 0,0 UV-I 0,0 C 52 % 65 % 0 % 1006,4 hPa 0,0 l/m 8,4 km/h (2 Bft) 0 min 9,1 km/h (2 Bft)
22.11.2009 17:12 16,8 C 12,8 C 0,0 UV-I 0,0 C 52 % 65 % 0 % 1006,4 hPa 0,0 l/m 8,7 km/h (2 Bft) 0 min 13,0 km/h (3 Bft)
22.11.2009 17:14 16,8 C 12,8 C 0,0 UV-I 0,0 C 52 % 65 % 0 % 1006,4 hPa 0,0 l/m 8,2 km/h (2 Bft) 0 min 25,5 km/h (4 Bft)
22.11.2009 17:16 16,8 C 12,7 C 0,0 UV-I 0,0 C 52 % 65 % 0 % 1006,4 hPa 0,0 l/m 8,2 km/h (2 Bft) 0 min 7,9 km/h (2 Bft)
22.11.2009 17:18 16,8 C 12,7 C 0,0 UV-I 0,0 C 52 % 65 % 0 % 1006,4 hPa 0,0 l/m 7,9 km/h (2 Bft) 0 min 12,8 km/h (3 Bft)
22.11.2009 17:20 16,8 C 12,7 C 0,0 UV-I 0,0 C 52 % 65 % 0 % 1006,4 hPa 0,0 l/m 8,7 km/h (2 Bft) 0 min 15,2 km/h (3 Bft)
22.11.2009 17:22 16,8 C 12,7 C 0,0 UV-I 0,0 C 52 % 65 % 0 % 1006,4 hPa 0,0 l/m 9,1 km/h (2 Bft) 0 min 10,8 km/h (2 Bft)
22.11.2009 17:24 16,8 C 12,7 C 0,0 UV-I 0,0 C 52 % 65 % 0 % 1006,4 hPa 0,0 l/m 9,6 km/h (2 Bft) 0 min 17,6 km/h (3 Bft)
22.11.2009 17:26 16,8 C 12,7 C 0,0 UV-I 0,0 C 52 % 65 % 0 % 1006,4 hPa 0,0 l/m 10,3 km/h (2 Bft) 0 min 18,0 km/h (3 Bft)
22.11.2009 17:28 16,8 C 12,6 C 0,0 UV-I 0,0 C 52 % 65 % 0 % 1006,4 hPa 0,0 l/m 11,1 km/h (2 Bft) 0 min 8,9 km/h (2 Bft)
22.11.2009 17:30 16,8 C 12,7 C 0,0 UV-I 0,0 C 52 % 65 % 0 % 1006,4 hPa 0,0 l/m 11,5 km/h (2 Bft) 0 min 6,5 km/h (2 Bft)
22.11.2009 17:32 16,8 C 12,7 C 0,0 UV-I 0,0 C 52 % 65 % 0 % 1006,4 hPa 0,0 l/m 10,3 km/h (2 Bft) 0 min 18,3 km/h (3 Bft)
22.11.2009 17:34 16,8 C 12,6 C 0,0 UV-I 0,0 C 52 % 66 % 0 % 1005,9 hPa 0,0 l/m 10,6 km/h (2 Bft) 0 min 10,8 km/h (2 Bft)
22.11.2009 17:36 16,8 C 12,5 C 0,0 UV-I 0,0 C 52 % 65 % 0 % 1005,9 hPa 0,0 l/m 9,6 km/h (2 Bft) 0 min 12,5 km/h (3 Bft)
22.11.2009 17:38 16,8 C 12,5 C 0,0 UV-I 0,0 C 52 % 65 % 0 % 1005,9 hPa 0,0 l/m 8,4 km/h (2 Bft) 0 min 7,9 km/h (2 Bft)
22.11.2009 17:40 16,8 C 12,6 C 0,0 UV-I 0,0 C 52 % 66 % 0 % 1005,9 hPa 0,0 l/m 7,5 km/h (2 Bft) 0 min 13,2 km/h (3 Bft)
22.11.2009 17:42 16,7 C 12,6 C 0,0 UV-I 0,0 C 52 % 66 % 0 % 1005,9 hPa 0,0 l/m 8,7 km/h (2 Bft) 0 min 13,7 km/h (3 Bft)
22.11.2009 17:44 16,7 C 12,7 C 0,0 UV-I 0,0 C 52 % 66 % 0 % 1005,9 hPa 0,0 l/m 9,6 km/h (2 Bft) 0 min 23,8 km/h (4 Bft)
22.11.2009 17:46 16,8 C 12,7 C 0,0 UV-I 0,0 C 52 % 66 % 0 % 1005,9 hPa 0,0 l/m 10,3 km/h (2 Bft) 0 min 16,1 km/h (3 Bft)
22.11.2009 17:48 16,8 C 12,7 C 0,0 UV-I 0,0 C 52 % 66 % 0 % 1005,9 hPa 0,0 l/m 10,1 km/h (2 Bft) 0 min 7,5 km/h (2 Bft)
22.11.2009 17:50 16,8 C 12,7 C 0,0 UV-I 0,0 C 52 % 66 % 0 % 1005,9 hPa 0,0 l/m 10,6 km/h (2 Bft) 0 min 16,6 km/h (3 Bft)
22.11.2009 17:52 16,8 C 12,7 C 0,0 UV-I 0,0 C 52 % 66 % 0 % 1005,9 hPa 0,0 l/m 10,6 km/h (2 Bft) 0 min 5,8 km/h (2 Bft)
22.11.2009 17:54 16,8 C 12,7 C 0,0 UV-I 0,0 C 52 % 66 % 0 % 1005,9 hPa 0,0 l/m 10,1 km/h (2 Bft) 0 min 5,5 km/h (1 Bft)
22.11.2009 17:56 16,8 C 12,7 C 0,0 UV-I 0,0 C 52 % 66 % 0 % 1005,9 hPa 0,0 l/m 8,4 km/h (2 Bft) 0 min 11,8 km/h (2 Bft)
22.11.2009 17:58 16,8 C 12,6 C 0,0 UV-I 0,0 C 52 % 66 % 0 % 1005,9 hPa 0,0 l/m 9,1 km/h (2 Bft) 0 min 18,8 km/h (3 Bft)
22.11.2009 18:00 16,8 C 12,7 C 0,0 UV-I 0,0 C 52 % 66 % 0 % 1005,9 hPa 0,0 l/m 9,9 km/h (2 Bft) 0 min 15,2 km/h (3 Bft)
22.11.2009 18:02 16,8 C 12,7 C 0,0 UV-I 0,0 C 52 % 66 % 0 % 1005,9 hPa 0,0 l/m 9,6 km/h (2 Bft) 0 min 18,0 km/h (3 Bft)
22.11.2009 18:04 16,8 C 12,7 C 0,0 UV-I 0,0 C 52 % 66 % 0 % 1005,9 hPa 0,0 l/m 9,9 km/h (2 Bft) 0 min 5,1 km/h (1 Bft)
22.11.2009 18:06 16,8 C 12,7 C 0,0 UV-I 0,0 C 52 % 66 % 0 % 1005,9 hPa 0,0 l/m 10,3 km/h (2 Bft) 0 min 36,8 km/h (5 Bft)
22.11.2009 18:08 16,8 C 12,7 C 0,0 UV-I 0,0 C 52 % 66 % 0 % 1005,9 hPa 0,0 l/m 10,8 km/h (2 Bft) 0 min 10,6 km/h (2 Bft)
22.11.2009 18:10 16,8 C 12,7 C 0,0 UV-I 0,0 C 52 % 66 % 0 % 1005,9 hPa 0,0 l/m 11,1 km/h (2 Bft) 0 min 10,8 km/h (2 Bft)
22.11.2009 18:12 16,8 C 12,7 C 0,0 UV-I 0,0 C 52 % 66 % 0 % 1005,9 hPa 0,0 l/m 10,8 km/h (2 Bft) 0 min 17,1 km/h (3 Bft)
22.11.2009 18:14 16,9 C 12,7 C 0,0 UV-I 0,0 C 52 % 66 % 0 % 1005,5 hPa 0,0 l/m 10,6 km/h (2 Bft) 0 min 8,2 km/h (2 Bft)
22.11.2009 18:16 16,9 C 12,7 C 0,0 UV-I 0,0 C 52 % 66 % 0 % 1005,5 hPa 0,0 l/m 11,8 km/h (2 Bft) 0 min 24,1 km/h (4 Bft)
22.11.2009 18:18 16,9 C 12,7 C 0,0 UV-I 0,0 C 52 % 66 % 0 % 1005,5 hPa 0,0 l/m 11,1 km/h (2 Bft) 0 min 11,5 km/h (2 Bft)
22.11.2009 18:20 16,9 C 12,7 C 0,0 UV-I 0,0 C 52 % 66 % 0 % 1005,5 hPa 0,0 l/m 10,6 km/h (2 Bft) 0 min 9,1 km/h (2 Bft)
22.11.2009 18:22 16,9 C 12,7 C 0,0 UV-I 0,0 C 52 % 66 % 0 % 1005,5 hPa 0,0 l/m 11,1 km/h (2 Bft) 0 min 11,3 km/h (2 Bft)
22.11.2009 18:24 16,9 C 12,8 C 0,0 UV-I 0,0 C 52 % 67 % 0 % 1005,5 hPa 0,0 l/m 12,0 km/h (2 Bft) 0 min 14,9 km/h (3 Bft)
22.11.2009 18:26 16,9 C 12,8 C 0,0 UV-I 0,0 C 53 % 67 % 0 % 1005,5 hPa 0,0 l/m 11,3 km/h (2 Bft) 0 min 7,0 km/h (2 Bft)
22.11.2009 18:28 17,0 C 12,8 C 0,0 UV-I 0,0 C 52 % 67 % 0 % 1005,5 hPa 0,0 l/m 11,5 km/h (2 Bft) 0 min 15,2 km/h (3 Bft)
22.11.2009 18:30 17,0 C 12,8 C 0,0 UV-I 0,0 C 52 % 67 % 0 % 1005,5 hPa 0,0 l/m 11,5 km/h (2 Bft) 0 min 5,1 km/h (1 Bft)
22.11.2009 18:32 17,0 C 12,9 C 0,0 UV-I 0,0 C 52 % 69 % 0 % 1005,5 hPa 0,4 l/m 12,0 km/h (2 Bft) 0 min 19,2 km/h (3 Bft)
22.11.2009 18:34 17,0 C 12,7 C 0,0 UV-I 0,0 C 53 % 68 % 0 % 1008,0 hPa 0,0 l/m 13,2 km/h (3 Bft) 0 min 21,2 km/h (4 Bft)
22.11.2009 18:36 17,0 C 11,9 C 0,0 UV-I 0,0 C 53 % 68 % 0 % 1008,0 hPa 1,7 l/m 14,0 km/h (3 Bft) 0 min 18,8 km/h (3 Bft)
22.11.2009 18:38 17,0 C 11,3 C 0,0 UV-I 0,0 C 53 % 71 % 0 % 1008,0 hPa 0,1 l/m 13,7 km/h (3 Bft) 0 min 11,3 km/h (2 Bft)
22.11.2009 18:40 17,0 C 10,8 C 0,0 UV-I 0,0 C 53 % 73 % 0 % 1008,0 hPa 0,0 l/m 13,7 km/h (3 Bft) 0 min 26,5 km/h (4 Bft)
22.11.2009 18:42 17,0 C 10,6 C 0,0 UV-I 0,0 C 53 % 75 % 0 % 1008,0 hPa 0,1 l/m 13,7 km/h (3 Bft) 0 min 56,6 km/h (7 Bft)
22.11.2009 18:44 16,9 C 10,4 C 0,0 UV-I 0,0 C 53 % 75 % 0 % 1008,0 hPa 0,2 l/m 11,5 km/h (2 Bft) 0 min 18,0 km/h (3 Bft)
22.11.2009 18:46 16,9 C 10,2 C 0,0 UV-I 0,0 C 53 % 77 % 0 % 1008,0 hPa 0,0 l/m 10,8 km/h (2 Bft) 0 min 11,3 km/h (2 Bft)
22.11.2009 18:48 16,9 C 10,1 C 0,0 UV-I 0,0 C 53 % 78 % 0 % 1008,0 hPa 0,2 l/m 10,1 km/h (2 Bft) 0 min 16,6 km/h (3 Bft)
22.11.2009 18:50 16,9 C 10,0 C 0,0 UV-I 0,0 C 53 % 79 % 0 % 1008,0 hPa 0,0 l/m 10,1 km/h (2 Bft) 0 min 12,0 km/h (2 Bft)
22.11.2009 18:52 16,8 C 9,8 C 0,0 UV-I 0,0 C 53 % 79 % 0 % 1008,0 hPa 0,2 l/m 9,6 km/h (2 Bft) 0 min 11,5 km/h (2 Bft)
22.11.2009 18:54 16,8 C 9,9 C 0,0 UV-I 0,0 C 53 % 80 % 0 % 1007,2 hPa 0,2 l/m 9,1 km/h (2 Bft) 0 min 7,5 km/h (2 Bft)
22.11.2009 18:56 16,8 C 9,7 C 0,0 UV-I 0,0 C 53 % 81 % 0 % 1007,2 hPa 0,0 l/m 8,9 km/h (2 Bft) 0 min 14,9 km/h (3 Bft)
22.11.2009 18:58 16,8 C 9,6 C 0,0 UV-I 0,0 C 54 % 82 % 0 % 1007,2 hPa 0,1 l/m 8,9 km/h (2 Bft) 0 min 14,4 km/h (3 Bft)
22.11.2009 19:00 16,8 C 9,6 C 0,0 UV-I 0,0 C 54 % 82 % 0 % 1007,2 hPa 0,0 l/m 8,9 km/h (2 Bft) 0 min 15,9 km/h (3 Bft)
22.11.2009 19:02 16,8 C 9,6 C 0,0 UV-I 0,0 C 54 % 82 % 0 % 1007,2 hPa 0,0 l/m 8,9 km/h (2 Bft) 0 min 15,2 km/h (3 Bft)
22.11.2009 19:04 16,8 C 9,6 C 0,0 UV-I 0,0 C 54 % 82 % 0 % 1007,2 hPa 0,0 l/m 9,1 km/h (2 Bft) 0 min 12,8 km/h (3 Bft)
22.11.2009 19:06 16,7 C 9,5 C 0,0 UV-I 0,0 C 54 % 82 % 0 % 1007,2 hPa 0,1 l/m 9,4 km/h (2 Bft) 0 min 7,7 km/h (2 Bft)
22.11.2009 19:08 16,7 C 9,5 C 0,0 UV-I 0,0 C 54 % 82 % 0 % 1007,2 hPa 0,0 l/m 9,1 km/h (2 Bft) 0 min 6,3 km/h (2 Bft)
22.11.2009 19:10 16,7 C 9,5 C 0,0 UV-I 0,0 C 54 % 82 % 0 % 1007,2 hPa 0,0 l/m 7,9 km/h (2 Bft) 0 min 9,1 km/h (2 Bft)
22.11.2009 19:12 16,6 C 9,4 C 0,0 UV-I 0,0 C 54 % 82 % 0 % 1007,2 hPa 0,0 l/m 7,9 km/h (2 Bft) 0 min 11,1 km/h (2 Bft)
22.11.2009 19:14 16,6 C 9,4 C 0,0 UV-I 0,0 C 54 % 82 % 0 % 1007,2 hPa 0,0 l/m 8,2 km/h (2 Bft) 0 min 15,6 km/h (3 Bft)
22.11.2009 19:16 16,6 C 9,3 C 0,0 UV-I 0,0 C 55 % 82 % 0 % 1007,2 hPa 0,0 l/m 8,2 km/h (2 Bft) 0 min 11,8 km/h (2 Bft)
22.11.2009 19:18 16,6 C 9,3 C 0,0 UV-I 0,0 C 55 % 83 % 0 % 1007,2 hPa 0,0 l/m 7,9 km/h (2 Bft) 0 min 10,1 km/h (2 Bft)
22.11.2009 19:20 16,6 C 9,2 C 0,0 UV-I 0,0 C 55 % 83 % 0 % 1007,2 hPa 0,0 l/m 8,2 km/h (2 Bft) 0 min 10,1 km/h (2 Bft)
22.11.2009 19:22 16,6 C 9,3 C 0,0 UV-I 0,0 C 55 % 83 % 0 % 1007,2 hPa 0,0 l/m 8,7 km/h (2 Bft) 0 min 14,2 km/h (3 Bft)
22.11.2009 19:24 16,6 C 9,3 C 0,0 UV-I 0,0 C 55 % 83 % 0 % 1007,2 hPa 0,0 l/m 8,4 km/h (2 Bft) 0 min 10,3 km/h (2 Bft)
22.11.2009 19:26 16,5 C 9,2 C 0,0 UV-I 0,0 C 55 % 83 % 0 % 1007,2 hPa 0,0 l/m 7,5 km/h (2 Bft) 0 min 7,7 km/h (2 Bft)
22.11.2009 19:28 16,5 C 9,2 C 0,0 UV-I 0,0 C 55 % 84 % 0 % 1007,2 hPa 0,0 l/m 7,0 km/h (2 Bft) 0 min 7,9 km/h (2 Bft)
22.11.2009 19:32 16,5 C 9,2 C 0,0 UV-I 0,0 C 55 % 84 % 0 % 1007,2 hPa 0,0 l/m 7,0 km/h (2 Bft) 0 min 10,6 km/h (2 Bft)
22.11.2009 19:34 16,5 C 9,1 C 0,0 UV-I 0,0 C 55 % 84 % 0 % 1006,9 hPa 0,0 l/m 6,3 km/h (2 Bft) 0 min 6,7 km/h (2 Bft)
22.11.2009 19:36 16,5 C 9,1 C 0,0 UV-I 0,0 C 55 % 84 % 0 % 1006,9 hPa 0,0 l/m 6,5 km/h (2 Bft) 0 min 9,9 km/h (2 Bft)
22.11.2009 19:38 16,5 C 9,1 C 0,0 UV-I 0,0 C 55 % 84 % 0 % 1006,9 hPa 0,0 l/m 6,0 km/h (2 Bft) 0 min 8,4 km/h (2 Bft)
22.11.2009 19:40 16,4 C 9,0 C 0,0 UV-I 0,0 C 55 % 84 % 0 % 1006,9 hPa 0,0 l/m 6,3 km/h (2 Bft) 0 min 8,7 km/h (2 Bft)
22.11.2009 19:42 16,4 C 9,0 C 0,0 UV-I 0,0 C 55 % 84 % 0 % 1006,9 hPa 0,0 l/m 5,5 km/h (1 Bft) 0 min 5,1 km/h (1 Bft)
22.11.2009 19:44 16,4 C 9,1 C 0,0 UV-I 0,0 C 55 % 84 % 0 % 1006,9 hPa 0,0 l/m 6,0 km/h (2 Bft) 0 min 9,6 km/h (2 Bft)
22.11.2009 19:46 16,4 C 9,0 C 0,0 UV-I 0,0 C 55 % 84 % 0 % 1006,9 hPa 0,0 l/m 6,3 km/h (2 Bft) 0 min 13,2 km/h (3 Bft)
22.11.2009 19:48 16,4 C 9,1 C 0,0 UV-I 0,0 C 55 % 84 % 0 % 1006,9 hPa 0,0 l/m 7,0 km/h (2 Bft) 0 min 16,4 km/h (3 Bft)
22.11.2009 19:50 16,4 C 9,1 C 0,0 UV-I 0,0 C 56 % 84 % 0 % 1006,9 hPa 0,0 l/m 7,7 km/h (2 Bft) 0 min 13,0 km/h (3 Bft)
22.11.2009 19:52 16,4 C 9,2 C 0,0 UV-I 0,0 C 56 % 85 % 0 % 1006,9 hPa 0,0 l/m 8,4 km/h (2 Bft) 0 min 18,3 km/h (3 Bft)
22.11.2009 19:54 16,4 C 9,2 C 0,0 UV-I 0,0 C 56 % 84 % 0 % 1007,2 hPa 0,0 l/m 8,4 km/h (2 Bft) 0 min 11,3 km/h (2 Bft)
22.11.2009 19:56 16,4 C 9,2 C 0,0 UV-I 0,0 C 56 % 84 % 0 % 1007,2 hPa 0,0 l/m 8,4 km/h (2 Bft) 0 min 6,5 km/h (2 Bft)
22.11.2009 19:58 16,4 C 9,2 C 0,0 UV-I 0,0 C 56 % 84 % 0 % 1007,2 hPa 0,0 l/m 7,9 km/h (2 Bft) 0 min 8,7 km/h (2 Bft)
22.11.2009 20:00 16,4 C 9,2 C 0,0 UV-I 0,0 C 56 % 84 % 0 % 1007,2 hPa 0,0 l/m 7,9 km/h (2 Bft) 0 min 17,1 km/h (3 Bft)
22.11.2009 20:02 16,4 C 9,2 C 0,0 UV-I 0,0 C 56 % 84 % 0 % 1007,2 hPa 0,0 l/m 8,2 km/h (2 Bft) 0 min 9,4 km/h (2 Bft)
22.11.2009 20:04 16,4 C 9,3 C 0,0 UV-I 0,0 C 56 % 84 % 0 % 1007,2 hPa 0,0 l/m 7,7 km/h (2 Bft) 0 min 7,7 km/h (2 Bft)
22.11.2009 20:06 16,4 C 9,3 C 0,0 UV-I 0,0 C 56 % 83 % 0 % 1007,2 hPa 0,0 l/m 8,2 km/h (2 Bft) 0 min 12,8 km/h (3 Bft)
22.11.2009 20:08 16,4 C 9,3 C 0,0 UV-I 0,0 C 56 % 83 % 0 % 1007,2 hPa 0,0 l/m 9,1 km/h (2 Bft) 0 min 16,4 km/h (3 Bft)
22.11.2009 20:10 16,4 C 9,4 C 0,0 UV-I 0,0 C 56 % 83 % 0 % 1007,2 hPa 0,0 l/m 9,4 km/h (2 Bft) 0 min 5,5 km/h (1 Bft)
22.11.2009 20:12 16,4 C 9,5 C 0,0 UV-I 0,0 C 56 % 83 % 0 % 1007,2 hPa 0,0 l/m 7,9 km/h (2 Bft) 0 min 6,0 km/h (2 Bft)
22.11.2009 20:14 16,4 C 9,4 C 0,0 UV-I 0,0 C 56 % 83 % 0 % 1006,9 hPa 0,0 l/m 8,7 km/h (2 Bft) 0 min 15,2 km/h (3 Bft)
22.11.2009 20:16 16,4 C 9,5 C 0,0 UV-I 0,0 C 56 % 83 % 0 % 1006,9 hPa 0,0 l/m 8,7 km/h (2 Bft) 0 min 10,6 km/h (2 Bft)
22.11.2009 20:18 16,4 C 9,5 C 0,0 UV-I 0,0 C 56 % 83 % 0 % 1006,9 hPa 0,0 l/m 8,2 km/h (2 Bft) 0 min 12,3 km/h (3 Bft)
22.11.2009 20:20 16,4 C 9,5 C 0,0 UV-I 0,0 C 56 % 83 % 0 % 1006,9 hPa 0,0 l/m 7,7 km/h (2 Bft) 0 min 16,1 km/h (3 Bft)
22.11.2009 20:22 16,2 C 9,5 C 0,0 UV-I 0,0 C 56 % 83 % 0 % 1006,9 hPa 0,0 l/m 7,9 km/h (2 Bft) 0 min 4,8 km/h (1 Bft)
22.11.2009 20:24 16,2 C 9,5 C 0,0 UV-I 0,0 C 56 % 83 % 0 % 1006,9 hPa 0,0 l/m 8,4 km/h (2 Bft) 0 min 18,5 km/h (3 Bft)
22.11.2009 20:26 16,2 C 9,4 C 0,0 UV-I 0,0 C 56 % 83 % 0 % 1006,9 hPa 0,0 l/m 7,2 km/h (2 Bft) 0 min 5,3 km/h (1 Bft)
22.11.2009 20:28 16,2 C 9,5 C 0,0 UV-I 0,0 C 56 % 83 % 0 % 1006,9 hPa 0,0 l/m 7,5 km/h (2 Bft) 0 min 9,4 km/h (2 Bft)
22.11.2009 20:30 16,2 C 9,5 C 0,0 UV-I 0,0 C 56 % 83 % 0 % 1006,9 hPa 0,0 l/m 7,7 km/h (2 Bft) 0 min 6,3 km/h (2 Bft)
22.11.2009 20:32 16,2 C 9,7 C 0,0 UV-I 0,0 C 56 % 82 % 0 % 1006,9 hPa 0,0 l/m 7,9 km/h (2 Bft) 0 min 9,1 km/h (2 Bft)
22.11.2009 20:34 16,2 C 9,6 C 0,0 UV-I 0,0 C 56 % 82 % 0 % 1006,8 hPa 0,0 l/m 8,2 km/h (2 Bft) 0 min 12,8 km/h (3 Bft)
22.11.2009 20:36 16,3 C 9,7 C 0,0 UV-I 0,0 C 56 % 82 % 0 % 1006,8 hPa 0,0 l/m 8,4 km/h (2 Bft) 0 min 17,8 km/h (3 Bft)
22.11.2009 20:38 16,3 C 9,7 C 0,0 UV-I 0,0 C 56 % 82 % 0 % 1006,8 hPa 0,0 l/m 8,7 km/h (2 Bft) 0 min 12,8 km/h (3 Bft)
22.11.2009 20:40 16,3 C 9,7 C 0,0 UV-I 0,0 C 56 % 82 % 0 % 1006,8 hPa 0,0 l/m 8,4 km/h (2 Bft) 0 min 7,5 km/h (2 Bft)
22.11.2009 20:42 16,2 C 9,7 C 0,0 UV-I 0,0 C 56 % 81 % 0 % 1006,8 hPa 0,0 l/m 8,7 km/h (2 Bft) 0 min 11,8 km/h (2 Bft)
22.11.2009 20:44 16,3 C 9,7 C 0,0 UV-I 0,0 C 56 % 81 % 0 % 1006,8 hPa 0,0 l/m 8,7 km/h (2 Bft) 0 min 10,1 km/h (2 Bft)
22.11.2009 20:46 16,3 C 9,7 C 0,0 UV-I 0,0 C 56 % 81 % 0 % 1006,8 hPa 0,0 l/m 8,4 km/h (2 Bft) 0 min 12,0 km/h (2 Bft)
22.11.2009 20:48 16,3 C 9,8 C 0,0 UV-I 0,0 C 56 % 81 % 0 % 1006,8 hPa 0,0 l/m 8,7 km/h (2 Bft) 0 min 16,8 km/h (3 Bft)
22.11.2009 20:50 16,3 C 9,9 C 0,0 UV-I 0,0 C 56 % 81 % 0 % 1006,8 hPa 0,0 l/m 9,4 km/h (2 Bft) 0 min 15,6 km/h (3 Bft)
22.11.2009 20:52 16,3 C 9,8 C 0,0 UV-I 0,0 C 56 % 80 % 0 % 1006,8 hPa 0,0 l/m 9,4 km/h (2 Bft) 0 min 13,0 km/h (3 Bft)
22.11.2009 20:54 16,3 C 9,9 C 0,0 UV-I 0,0 C 56 % 80 % 0 % 1006,8 hPa 0,0 l/m 8,9 km/h (2 Bft) 0 min 5,1 km/h (1 Bft)
22.11.2009 20:56 16,3 C 9,8 C 0,0 UV-I 0,0 C 56 % 80 % 0 % 1006,8 hPa 0,0 l/m 8,7 km/h (2 Bft) 0 min 11,5 km/h (2 Bft)
22.11.2009 20:58 16,3 C 9,8 C 0,0 UV-I 0,0 C 56 % 80 % 0 % 1006,8 hPa 0,0 l/m 8,9 km/h (2 Bft) 0 min 12,3 km/h (3 Bft)
22.11.2009 21:00 16,3 C 9,8 C 0,0 UV-I 0,0 C 56 % 80 % 0 % 1006,8 hPa 0,0 l/m 8,9 km/h (2 Bft) 0 min 8,4 km/h (2 Bft)
22.11.2009 21:02 16,2 C 9,9 C 0,0 UV-I 0,0 C 56 % 80 % 0 % 1006,8 hPa 0,0 l/m 7,9 km/h (2 Bft) 0 min 7,5 km/h (2 Bft)
22.11.2009 21:04 16,3 C 9,9 C 0,0 UV-I 0,0 C 56 % 79 % 0 % 1006,8 hPa 0,0 l/m 9,1 km/h (2 Bft) 0 min 18,0 km/h (3 Bft)
22.11.2009 21:06 16,3 C 9,9 C 0,0 UV-I 0,0 C 56 % 79 % 0 % 1006,8 hPa 0,0 l/m 9,9 km/h (2 Bft) 0 min 7,2 km/h (2 Bft)
22.11.2009 21:08 16,3 C 9,9 C 0,0 UV-I 0,0 C 56 % 79 % 0 % 1006,8 hPa 0,0 l/m 9,4 km/h (2 Bft) 0 min 7,2 km/h (2 Bft)
22.11.2009 21:10 16,2 C 10,0 C 0,0 UV-I 0,0 C 55 % 79 % 0 % 1006,8 hPa 0,0 l/m 9,4 km/h (2 Bft) 0 min 11,8 km/h (2 Bft)
22.11.2009 21:12 16,3 C 10,1 C 0,0 UV-I 0,0 C 55 % 79 % 0 % 1006,8 hPa 0,0 l/m 9,6 km/h (2 Bft) 0 min 7,2 km/h (2 Bft)
22.11.2009 21:14 16,2 C 10,0 C 0,0 UV-I 0,0 C 55 % 78 % 0 % 1006,9 hPa 0,0 l/m 9,9 km/h (2 Bft) 0 min 13,7 km/h (3 Bft)
22.11.2009 21:16 16,2 C 10,0 C 0,0 UV-I 0,0 C 55 % 79 % 0 % 1006,9 hPa 0,0 l/m 8,7 km/h (2 Bft) 0 min 13,5 km/h (3 Bft)
22.11.2009 21:18 16,3 C 10,0 C 0,0 UV-I 0,0 C 55 % 78 % 0 % 1006,9 hPa 0,0 l/m 9,1 km/h (2 Bft) 0 min 8,4 km/h (2 Bft)
22.11.2009 21:20 16,2 C 10,0 C 0,0 UV-I 0,0 C 55 % 78 % 0 % 1006,9 hPa 0,0 l/m 9,4 km/h (2 Bft) 0 min 11,8 km/h (2 Bft)
22.11.2009 21:22 16,2 C 10,0 C 0,0 UV-I 0,0 C 55 % 78 % 0 % 1006,9 hPa 0,0 l/m 7,7 km/h (2 Bft) 0 min 10,8 km/h (2 Bft)
22.11.2009 21:24 16,2 C 10,0 C 0,0 UV-I 0,0 C 55 % 77 % 0 % 1006,9 hPa 0,0 l/m 8,2 km/h (2 Bft) 0 min 5,8 km/h (2 Bft)
22.11.2009 21:26 16,2 C 10,1 C 0,0 UV-I 0,0 C 55 % 77 % 0 % 1006,9 hPa 0,0 l/m 7,9 km/h (2 Bft) 0 min 10,3 km/h (2 Bft)
22.11.2009 21:28 16,2 C 10,0 C 0,0 UV-I 0,0 C 55 % 77 % 0 % 1006,9 hPa 0,0 l/m 7,7 km/h (2 Bft) 0 min 18,0 km/h (3 Bft)
22.11.2009 21:30 16,2 C 10,0 C 0,0 UV-I 0,0 C 55 % 77 % 0 % 1006,9 hPa 0,0 l/m 7,7 km/h (2 Bft) 0 min 5,3 km/h (1 Bft)
22.11.2009 21:32 16,2 C 10,0 C 0,0 UV-I 0,0 C 55 % 77 % 0 % 1006,9 hPa 0,0 l/m 7,7 km/h (2 Bft) 0 min 13,5 km/h (3 Bft)
22.11.2009 21:34 16,2 C 10,1 C 0,0 UV-I 0,0 C 55 % 77 % 0 % 1006,7 hPa 0,0 l/m 8,2 km/h (2 Bft) 0 min 17,1 km/h (3 Bft)
22.11.2009 21:36 16,2 C 10,1 C 0,0 UV-I 0,0 C 55 % 77 % 0 % 1006,7 hPa 0,0 l/m 8,9 km/h (2 Bft) 0 min 13,5 km/h (3 Bft)
22.11.2009 21:38 16,2 C 10,1 C 0,0 UV-I 0,0 C 55 % 77 % 0 % 1006,7 hPa 0,0 l/m 9,4 km/h (2 Bft) 0 min 10,1 km/h (2 Bft)
22.11.2009 21:40 16,2 C 10,1 C 0,0 UV-I 0,0 C 55 % 77 % 0 % 1006,7 hPa 0,0 l/m 9,1 km/h (2 Bft) 0 min 10,1 km/h (2 Bft)
22.11.2009 21:42 16,2 C 10,1 C 0,0 UV-I 0,0 C 55 % 77 % 0 % 1006,7 hPa 0,0 l/m 9,6 km/h (2 Bft) 0 min 13,2 km/h (3 Bft)
22.11.2009 21:44 16,2 C 10,1 C 0,0 UV-I 0,0 C 55 % 77 % 0 % 1006,7 hPa 0,0 l/m 9,6 km/h (2 Bft) 0 min 13,0 km/h (3 Bft)
22.11.2009 21:46 16,2 C 10,0 C 0,0 UV-I 0,0 C 55 % 77 % 0 % 1006,7 hPa 0,0 l/m 8,2 km/h (2 Bft) 0 min 5,5 km/h (1 Bft)
22.11.2009 21:48 16,2 C 10,0 C 0,0 UV-I 0,0 C 55 % 77 % 0 % 1006,7 hPa 0,0 l/m 7,5 km/h (2 Bft) 0 min 7,5 km/h (2 Bft)
22.11.2009 21:50 16,2 C 10,0 C 0,0 UV-I 0,0 C 55 % 77 % 0 % 1006,7 hPa 0,0 l/m 7,7 km/h (2 Bft) 0 min 7,2 km/h (2 Bft)
22.11.2009 21:52 16,2 C 10,1 C 0,0 UV-I 0,0 C 55 % 77 % 0 % 1006,7 hPa 0,0 l/m 7,5 km/h (2 Bft) 0 min 9,1 km/h (2 Bft)
22.11.2009 21:54 16,2 C 10,0 C 0,0 UV-I 0,0 C 55 % 77 % 0 % 1006,8 hPa 0,0 l/m 6,5 km/h (2 Bft) 0 min 7,0 km/h (2 Bft)
22.11.2009 21:56 16,2 C 10,1 C 0,0 UV-I 0,0 C 55 % 77 % 0 % 1006,8 hPa 0,0 l/m 7,0 km/h (2 Bft) 0 min 10,1 km/h (2 Bft)
22.11.2009 21:58 16,2 C 10,0 C 0,0 UV-I 0,0 C 55 % 77 % 0 % 1006,8 hPa 0,0 l/m 6,7 km/h (2 Bft) 0 min 4,3 km/h (1 Bft)
22.11.2009 22:00 16,2 C 10,1 C 0,0 UV-I 0,0 C 55 % 77 % 0 % 1006,8 hPa 0,0 l/m 6,3 km/h (2 Bft) 0 min 14,0 km/h (3 Bft)
22.11.2009 22:02 16,2 C 10,0 C 0,0 UV-I 0,0 C 55 % 77 % 0 % 1006,8 hPa 0,0 l/m 6,3 km/h (2 Bft) 0 min 14,0 km/h (3 Bft)
22.11.2009 22:04 16,2 C 10,0 C 0,0 UV-I 0,0 C 55 % 77 % 0 % 1006,8 hPa 0,0 l/m 6,7 km/h (2 Bft) 0 min 17,6 km/h (3 Bft)
22.11.2009 22:06 16,2 C 10,0 C 0,0 UV-I 0,0 C 55 % 77 % 0 % 1006,8 hPa 0,0 l/m 6,5 km/h (2 Bft) 0 min 7,7 km/h (2 Bft)
22.11.2009 22:08 16,2 C 10,0 C 0,0 UV-I 0,0 C 55 % 77 % 0 % 1006,8 hPa 0,0 l/m 6,7 km/h (2 Bft) 0 min 9,9 km/h (2 Bft)
22.11.2009 22:10 16,2 C 10,0 C 0,0 UV-I 0,0 C 55 % 77 % 0 % 1006,8 hPa 0,0 l/m 7,0 km/h (2 Bft) 0 min 5,1 km/h (1 Bft)
22.11.2009 22:12 16,2 C 10,0 C 0,0 UV-I 0,0 C 55 % 77 % 0 % 1006,8 hPa 0,0 l/m 7,7 km/h (2 Bft) 0 min 12,0 km/h (2 Bft)
22.11.2009 22:14 16,2 C 10,0 C 0,0 UV-I 0,0 C 55 % 77 % 0 % 1006,4 hPa 0,0 l/m 7,2 km/h (2 Bft) 0 min 8,2 km/h (2 Bft)
22.11.2009 22:16 16,2 C 10,0 C 0,0 UV-I 0,0 C 55 % 77 % 0 % 1006,4 hPa 0,0 l/m 6,7 km/h (2 Bft) 0 min 7,9 km/h (2 Bft)
22.11.2009 22:18 16,2 C 9,9 C 0,0 UV-I 0,0 C 55 % 77 % 0 % 1006,4 hPa 0,0 l/m 6,3 km/h (2 Bft) 0 min 4,6 km/h (1 Bft)
22.11.2009 22:20 16,2 C 9,9 C 0,0 UV-I 0,0 C 55 % 77 % 0 % 1006,4 hPa 0,0 l/m 5,5 km/h (1 Bft) 0 min 7,9 km/h (2 Bft)
22.11.2009 22:22 16,2 C 9,9 C 0,0 UV-I 0,0 C 55 % 77 % 0 % 1006,4 hPa 0,0 l/m 5,3 km/h (1 Bft) 0 min 8,7 km/h (2 Bft)
22.11.2009 22:24 16,2 C 9,9 C 0,0 UV-I 0,0 C 55 % 77 % 0 % 1006,4 hPa 0,0 l/m 5,1 km/h (1 Bft) 0 min 15,6 km/h (3 Bft)
22.11.2009 22:26 16,2 C 9,9 C 0,0 UV-I 0,0 C 55 % 77 % 0 % 1006,4 hPa 0,0 l/m 5,5 km/h (1 Bft) 0 min 8,4 km/h (2 Bft)
22.11.2009 22:28 16,2 C 9,9 C 0,0 UV-I 0,0 C 55 % 77 % 0 % 1006,4 hPa 0,0 l/m 5,5 km/h (1 Bft) 0 min 4,6 km/h (1 Bft)
22.11.2009 22:30 16,2 C 9,9 C 0,0 UV-I 0,0 C 55 % 77 % 0 % 1006,4 hPa 0,0 l/m 5,5 km/h (1 Bft) 0 min 7,2 km/h (2 Bft)
22.11.2009 22:32 16,2 C 9,9 C 0,0 UV-I 0,0 C 55 % 78 % 0 % 1006,4 hPa 0,0 l/m 6,0 km/h (2 Bft) 0 min 16,1 km/h (3 Bft)
22.11.2009 22:34 16,2 C 9,9 C 0,0 UV-I 0,0 C 55 % 77 % 0 % 1006,7 hPa 0,0 l/m 6,5 km/h (2 Bft) 0 min 4,3 km/h (1 Bft)
22.11.2009 22:36 16,2 C 9,8 C 0,0 UV-I 0,0 C 55 % 77 % 0 % 1006,7 hPa 0,0 l/m 6,0 km/h (2 Bft) 0 min 14,0 km/h (3 Bft)
22.11.2009 22:38 16,2 C 9,9 C 0,0 UV-I 0,0 C 55 % 77 % 0 % 1006,7 hPa 0,0 l/m 5,5 km/h (1 Bft) 0 min 5,5 km/h (1 Bft)
22.11.2009 22:40 16,2 C 9,9 C 0,0 UV-I 0,0 C 55 % 77 % 0 % 1006,7 hPa 0,0 l/m 5,5 km/h (1 Bft) 0 min 5,1 km/h (1 Bft)
22.11.2009 22:42 16,2 C 9,8 C 0,0 UV-I 0,0 C 55 % 77 % 0 % 1006,7 hPa 0,0 l/m 5,3 km/h (1 Bft) 0 min 14,7 km/h (3 Bft)
22.11.2009 22:44 16,2 C 9,9 C 0,0 UV-I 0,0 C 55 % 77 % 0 % 1006,7 hPa 0,0 l/m 5,1 km/h (1 Bft) 0 min 9,4 km/h (2 Bft)
22.11.2009 22:46 16,2 C 9,8 C 0,0 UV-I 0,0 C 55 % 77 % 0 % 1006,7 hPa 0,0 l/m 5,3 km/h (1 Bft) 0 min 7,2 km/h (2 Bft)
22.11.2009 22:48 16,2 C 9,8 C 0,0 UV-I 0,0 C 55 % 77 % 0 % 1006,7 hPa 0,0 l/m 5,8 km/h (2 Bft) 0 min 6,5 km/h (2 Bft)
22.11.2009 22:50 16,2 C 9,7 C 0,0 UV-I 0,0 C 55 % 77 % 0 % 1006,7 hPa 0,0 l/m 5,8 km/h (2 Bft) 0 min 5,8 km/h (2 Bft)
22.11.2009 22:52 16,2 C 9,7 C 0,0 UV-I 0,0 C 55 % 77 % 0 % 1006,7 hPa 0,0 l/m 6,5 km/h (2 Bft) 0 min 7,7 km/h (2 Bft)
22.11.2009 22:54 16,2 C 9,7 C 0,0 UV-I 0,0 C 55 % 77 % 0 % 1006,3 hPa 0,0 l/m 6,3 km/h (2 Bft) 0 min 15,4 km/h (3 Bft)
22.11.2009 22:56 16,2 C 9,7 C 0,0 UV-I 0,0 C 55 % 77 % 0 % 1006,3 hPa 0,0 l/m 6,0 km/h (2 Bft) 0 min 10,1 km/h (2 Bft)
22.11.2009 22:58 16,2 C 9,7 C 0,0 UV-I 0,0 C 54 % 77 % 0 % 1006,3 hPa 0,0 l/m 6,5 km/h (2 Bft) 0 min 7,7 km/h (2 Bft)
22.11.2009 23:00 16,2 C 9,7 C 0,0 UV-I 0,0 C 54 % 76 % 0 % 1006,3 hPa 0,0 l/m 7,7 km/h (2 Bft) 0 min 12,8 km/h (3 Bft)
22.11.2009 23:02 16,2 C 9,7 C 0,0 UV-I 0,0 C 54 % 76 % 0 % 1006,3 hPa 0,0 l/m 7,7 km/h (2 Bft) 0 min 14,0 km/h (3 Bft)
22.11.2009 23:04 16,2 C 9,7 C 0,0 UV-I 0,0 C 54 % 76 % 0 % 1006,3 hPa 0,0 l/m 8,9 km/h (2 Bft) 0 min 26,9 km/h (4 Bft)
22.11.2009 23:06 16,2 C 9,8 C 0,0 UV-I 0,0 C 54 % 76 % 0 % 1006,3 hPa 0,0 l/m 8,4 km/h (2 Bft) 0 min 5,3 km/h (1 Bft)
22.11.2009 23:08 16,2 C 9,7 C 0,0 UV-I 0,0 C 54 % 76 % 0 % 1006,3 hPa 0,0 l/m 8,7 km/h (2 Bft) 0 min 20,7 km/h (4 Bft)
22.11.2009 23:10 16,2 C 9,7 C 0,0 UV-I 0,0 C 54 % 76 % 0 % 1006,3 hPa 0,0 l/m 7,7 km/h (2 Bft) 0 min 11,5 km/h (2 Bft)
22.11.2009 23:12 16,2 C 9,7 C 0,0 UV-I 0,0 C 54 % 76 % 0 % 1006,3 hPa 0,0 l/m 7,2 km/h (2 Bft) 0 min 12,3 km/h (3 Bft)
22.11.2009 23:14 16,2 C 9,7 C 0,0 UV-I 0,0 C 54 % 76 % 0 % 1006,1 hPa 0,0 l/m 7,2 km/h (2 Bft) 0 min 10,6 km/h (2 Bft)
22.11.2009 23:16 16,2 C 9,7 C 0,0 UV-I 0,0 C 54 % 76 % 0 % 1006,1 hPa 0,0 l/m 6,7 km/h (2 Bft) 0 min 12,5 km/h (3 Bft)
22.11.2009 23:18 16,2 C 9,7 C 0,0 UV-I 0,0 C 54 % 76 % 0 % 1006,1 hPa 0,0 l/m 7,2 km/h (2 Bft) 0 min 10,8 km/h (2 Bft)
22.11.2009 23:20 16,2 C 9,7 C 0,0 UV-I 0,0 C 54 % 76 % 0 % 1006,1 hPa 0,0 l/m 7,0 km/h (2 Bft) 0 min 8,2 km/h (2 Bft)
22.11.2009 23:22 16,2 C 9,7 C 0,0 UV-I 0,0 C 54 % 76 % 0 % 1006,1 hPa 0,0 l/m 7,5 km/h (2 Bft) 0 min 14,0 km/h (3 Bft)
22.11.2009 23:24 16,2 C 9,7 C 0,0 UV-I 0,0 C 54 % 76 % 0 % 1006,1 hPa 0,0 l/m 7,0 km/h (2 Bft) 0 min 3,1 km/h (1 Bft)
22.11.2009 23:26 16,2 C 9,7 C 0,0 UV-I 0,0 C 54 % 76 % 0 % 1006,1 hPa 0,0 l/m 6,7 km/h (2 Bft) 0 min 5,8 km/h (2 Bft)
22.11.2009 23:28 16,2 C 9,7 C 0,0 UV-I 0,0 C 54 % 76 % 0 % 1006,1 hPa 0,0 l/m 5,8 km/h (2 Bft) 0 min 0,0 km/h (0 Bft)
22.11.2009 23:30 16,2 C 9,7 C 0,0 UV-I 0,0 C 54 % 76 % 0 % 1006,1 hPa 0,0 l/m 5,5 km/h (1 Bft) 0 min 5,3 km/h (1 Bft)
22.11.2009 23:32 16,2 C 9,7 C 0,0 UV-I 0,0 C 54 % 76 % 0 % 1006,1 hPa 0,0 l/m 6,0 km/h (2 Bft) 0 min 11,3 km/h (2 Bft)
22.11.2009 23:34 16,2 C 9,7 C 0,0 UV-I 0,0 C 54 % 76 % 0 % 1005,9 hPa 0,0 l/m 5,3 km/h (1 Bft) 0 min 3,8 km/h (1 Bft)
22.11.2009 23:36 16,2 C 9,7 C 0,0 UV-I 0,0 C 54 % 76 % 0 % 1005,9 hPa 0,0 l/m 5,1 km/h (1 Bft) 0 min 7,0 km/h (2 Bft)
22.11.2009 23:38 16,2 C 9,7 C 0,0 UV-I 0,0 C 54 % 76 % 0 % 1005,9 hPa 0,0 l/m 5,1 km/h (1 Bft) 0 min 5,5 km/h (1 Bft)
22.11.2009 23:40 16,2 C 9,7 C 0,0 UV-I 0,0 C 54 % 76 % 0 % 1005,9 hPa 0,0 l/m 5,5 km/h (1 Bft) 0 min 5,5 km/h (1 Bft)
22.11.2009 23:42 16,2 C 9,7 C 0,0 UV-I 0,0 C 54 % 76 % 0 % 1005,9 hPa 0,0 l/m 5,5 km/h (1 Bft) 0 min 7,9 km/h (2 Bft)
22.11.2009 23:44 16,2 C 9,7 C 0,0 UV-I 0,0 C 54 % 76 % 0 % 1005,9 hPa 0,0 l/m 5,3 km/h (1 Bft) 0 min 5,5 km/h (1 Bft)
22.11.2009 23:46 16,2 C 9,7 C 0,0 UV-I 0,0 C 54 % 76 % 0 % 1005,9 hPa 0,0 l/m 5,8 km/h (2 Bft) 0 min 10,8 km/h (2 Bft)
22.11.2009 23:48 16,2 C 9,7 C 0,0 UV-I 0,0 C 54 % 76 % 0 % 1005,9 hPa 0,0 l/m 6,0 km/h (2 Bft) 0 min 9,6 km/h (2 Bft)
22.11.2009 23:50 16,2 C 9,7 C 0,0 UV-I 0,0 C 54 % 76 % 0 % 1005,9 hPa 0,0 l/m 6,5 km/h (2 Bft) 0 min 8,7 km/h (2 Bft)
22.11.2009 23:52 16,2 C 9,7 C 0,0 UV-I 0,0 C 54 % 76 % 0 % 1005,9 hPa 0,0 l/m 6,5 km/h (2 Bft) 0 min 10,3 km/h (2 Bft)
22.11.2009 23:54 16,2 C 9,8 C 0,0 UV-I 0,0 C 54 % 76 % 0 % 1006,0 hPa 0,0 l/m 6,7 km/h (2 Bft) 0 min 8,9 km/h (2 Bft)
22.11.2009 23:56 16,2 C 9,9 C 0,0 UV-I 0,0 C 54 % 76 % 0 % 1006,0 hPa 0,0 l/m 6,5 km/h (2 Bft) 0 min 4,8 km/h (1 Bft)
22.11.2009 23:58 16,2 C 9,9 C 0,0 UV-I 0,0 C 54 % 76 % 0 % 1006,0 hPa 0,0 l/m 6,7 km/h (2 Bft) 0 min 19,0 km/h (3 Bft)
_ Min-Zeit 20:22 19:40 00:04 00:04 15:20 14:44 00:04 18:14 - 00:24 - 00:09
Minimum _ 16,2 C 9,0 C 0,0 UV-I 0,0 C 51 % 58 % 0 % 1005,5 hPa - 1,4 km/h (1 Bft) - 0,0 km/h (0 Bft)
_ Max-Zeit 14:22 14:24 13:16 12:26 08:12 08:08 12:14 00:04 18:36 11:58 12:12 18:42
Maximum _ 17,7 C 14,9 C 1,7 UV-I 4,2 C 66 % 90 % 100 % 1014,1 hPa 1,7 l/m 14,0 km/h
O-NO (3 Bft)
2 min 56,6 km/h
NW (7 Bft)
Durchschnitt _ 16,9 C 12,3 C 0,2 UV-I 0,4 C 58 % 77 % 11 % 1009,5 hPa #5,9 l/m 7,3 km/h (2 Bft) #2:02 h 10,6 km/h (2 Bft)
© 2012 W. Hausmann